Time,TemperatureF,DewpointF,PressureIn,WindDirection,WindDirectionDegrees,WindSpeedMPH,WindSpeedGustMPH,Humidity,HourlyPrecipIn,Conditions,Clouds,dailyrainin,SoftwareType,DateUTC
2013-09-12 00:03:00,60.6,58.9,25.28,North,0,0.0,0.0,94,0.00,,---,0.00,VWS V14.01,2013-09-12 06:03:00,
2013-09-12 00:04:00,60.6,58.9,25.28,North,0,0.0,0.0,94,0.00,,---,0.00,VWS V14.01,2013-09-12 06:04:00,
2013-09-12 00:05:00,60.6,58.9,25.28,North,0,0.0,0.0,94,0.00,,---,0.00,VWS V14.01,2013-09-12 06:05:00,
2013-09-12 00:07:00,60.6,58.9,25.28,North,0,0.0,0.0,94,0.00,,---,0.00,VWS V14.01,2013-09-12 06:07:00,
2013-09-12 00:08:00,60.6,58.9,25.28,North,0,0.0,0.0,94,0.00,,---,0.00,VWS V14.01,2013-09-12 06:08:00,
2013-09-12 00:09:00,60.6,58.9,25.25,North,0,0.0,0.0,94,0.00,,---,0.00,VWS V14.01,2013-09-12 06:09:00,
2013-09-12 00:12:00,60.6,58.6,25.25,North,0,0.0,0.0,93,0.00,,---,0.00,VWS V14.01,2013-09-12 06:12:00,
2013-09-12 00:14:00,60.6,58.6,25.25,North,0,0.0,0.0,93,0.00,,---,0.00,VWS V14.01,2013-09-12 06:14:00,
2013-09-12 00:18:00,60.6,58.6,25.25,North,0,0.0,0.0,93,0.00,,---,0.00,VWS V14.01,2013-09-12 06:18:00,
2013-09-12 00:19:00,60.6,58.6,25.25,North,0,0.0,0.0,93,0.00,,---,0.00,VWS V14.01,2013-09-12 06:19:00,
2013-09-12 00:22:00,60.6,58.3,25.25,North,0,0.0,0.0,92,0.00,,---,0.00,VWS V14.01,2013-09-12 06:22:00,
2013-09-12 00:23:00,60.6,58.3,25.25,North,0,0.0,0.0,92,0.00,,---,0.00,VWS V14.01,2013-09-12 06:23:00,
2013-09-12 00:28:00,60.8,58.2,25.25,North,0,0.0,0.0,91,0.00,,---,0.00,VWS V14.01,2013-09-12 06:28:00,
2013-09-12 00:30:00,60.8,58.2,25.25,North,0,0.0,0.0,91,0.00,,---,0.00,VWS V14.01,2013-09-12 06:30:00,
2013-09-12 00:31:00,60.8,58.2,25.25,North,0,0.0,0.0,91,0.00,,---,0.00,VWS V14.01,2013-09-12 06:31:00,
2013-09-12 00:32:00,60.8,58.2,25.25,North,0,0.0,0.0,91,0.00,,---,0.00,VWS V14.01,2013-09-12 06:32:00,
2013-09-12 00:33:00,60.8,58.2,25.25,North,0,0.0,0.0,91,0.00,,---,0.00,VWS V14.01,2013-09-12 06:33:00,
2013-09-12 00:34:00,60.8,57.8,25.25,North,0,0.0,0.0,90,0.00,,---,0.00,VWS V14.01,2013-09-12 06:34:00,
2013-09-12 00:37:00,60.8,57.8,25.25,North,0,0.0,0.0,90,0.00,,---,0.00,VWS V14.01,2013-09-12 06:37:00,
2013-09-12 00:38:00,60.8,57.8,25.25,North,0,0.0,0.0,90,0.00,,---,0.00,VWS V14.01,2013-09-12 06:38:00,
2013-09-12 00:39:00,60.8,57.8,25.25,North,0,0.0,0.0,90,0.00,,---,0.00,VWS V14.01,2013-09-12 06:39:00,
2013-09-12 00:40:00,60.8,57.8,25.25,North,0,0.0,0.0,90,0.00,,---,0.00,VWS V14.01,2013-09-12 06:40:00,
2013-09-12 00:43:00,60.8,57.8,25.25,North,0,0.0,0.0,90,0.00,,---,0.00,VWS V14.01,2013-09-12 06:43:00,
2013-09-12 00:45:00,60.8,57.8,25.25,North,0,0.0,0.0,90,0.00,,---,0.00,VWS V14.01,2013-09-12 06:45:00,
2013-09-12 00:46:00,60.8,57.8,25.25,North,0,0.0,0.0,90,0.00,,---,0.00,VWS V14.01,2013-09-12 06:46:00,
2013-09-12 00:49:00,60.8,57.5,25.25,North,0,0.0,0.0,89,0.00,,---,0.00,VWS V14.01,2013-09-12 06:49:00,
2013-09-12 00:51:00,60.8,57.5,25.25,North,0,0.0,0.0,89,0.00,,---,0.00,VWS V14.01,2013-09-12 06:51:00,
2013-09-12 00:53:00,60.8,57.5,25.25,North,0,0.0,0.0,89,0.00,,---,0.00,VWS V14.01,2013-09-12 06:53:00,
2013-09-12 00:54:00,60.8,57.5,25.25,North,0,0.0,0.0,89,0.00,,---,0.00,VWS V14.01,2013-09-12 06:54:00,
2013-09-12 00:55:00,60.8,57.5,25.25,North,0,0.0,0.0,89,0.00,,---,0.00,VWS V14.01,2013-09-12 06:55:00,
2013-09-12 00:56:00,60.8,57.5,25.25,North,0,0.0,0.0,89,0.00,,---,0.00,VWS V14.01,2013-09-12 06:56:00,
2013-09-12 00:57:00,60.8,57.5,25.25,North,0,0.0,0.0,89,0.00,,---,0.00,VWS V14.01,2013-09-12 06:57:00,
2013-09-12 00:59:00,60.6,56.7,25.25,North,0,0.0,0.0,87,0.00,,---,0.00,VWS V14.01,2013-09-12 06:59:00,
2013-09-12 01:01:00,60.6,56.7,25.25,North,0,0.0,0.0,87,0.00,,---,0.00,VWS V14.01,2013-09-12 07:01:00,
2013-09-12 01:04:00,60.6,56.1,25.25,North,0,0.0,0.0,85,0.00,,---,0.00,VWS V14.01,2013-09-12 07:04:00,
2013-09-12 01:06:00,60.6,56.1,25.25,North,0,0.0,0.0,85,0.00,,---,0.00,VWS V14.01,2013-09-12 07:06:00,
2013-09-12 01:08:00,60.6,55.8,25.25,North,0,0.0,0.0,84,0.00,,---,0.00,VWS V14.01,2013-09-12 07:08:00,
2013-09-12 01:11:00,60.6,55.8,25.25,North,0,0.0,0.0,84,0.00,,---,0.00,VWS V14.01,2013-09-12 07:11:00,
2013-09-12 01:13:00,60.6,55.8,25.25,North,0,0.0,0.0,84,0.00,,---,0.00,VWS V14.01,2013-09-12 07:13:00,
2013-09-12 01:16:00,60.6,55.8,25.25,North,0,0.0,0.0,84,0.00,,---,0.00,VWS V14.01,2013-09-12 07:16:00,
2013-09-12 01:17:00,60.6,55.8,25.25,North,0,0.0,0.0,84,0.00,,---,0.00,VWS V14.01,2013-09-12 07:17:00,
2013-09-12 01:18:00,60.6,55.8,25.25,North,0,0.0,0.0,84,0.00,,---,0.00,VWS V14.01,2013-09-12 07:18:00,
2013-09-12 01:19:00,60.6,55.8,25.25,North,0,0.0,0.0,84,0.00,,---,0.00,VWS V14.01,2013-09-12 07:19:00,
2013-09-12 01:21:00,60.6,55.8,25.25,North,0,0.0,0.0,84,0.00,,---,0.00,VWS V14.01,2013-09-12 07:21:00,
2013-09-12 01:22:00,60.6,55.8,25.25,North,0,0.0,0.0,84,0.00,,---,0.00,VWS V14.01,2013-09-12 07:22:00,
2013-09-12 01:24:00,60.4,55.6,25.25,North,0,0.0,0.0,84,0.00,,---,0.00,VWS V14.01,2013-09-12 07:24:00,
2013-09-12 01:26:00,60.4,55.6,25.25,North,0,0.0,0.0,84,0.00,,---,0.00,VWS V14.01,2013-09-12 07:26:00,
2013-09-12 01:27:00,60.4,55.6,25.25,North,0,0.0,0.0,84,0.00,,---,0.00,VWS V14.01,2013-09-12 07:27:00,
2013-09-12 01:29:00,60.4,55.6,25.25,North,0,0.0,0.0,84,0.00,,---,0.00,VWS V14.01,2013-09-12 07:29:00,
2013-09-12 01:30:00,60.4,55.6,25.25,North,0,0.0,0.0,84,0.00,,---,0.00,VWS V14.01,2013-09-12 07:30:00,
2013-09-12 01:32:00,60.4,55.6,25.22,North,0,0.0,0.0,84,0.00,,---,0.00,VWS V14.01,2013-09-12 07:32:00,
2013-09-12 01:34:00,60.4,55.9,25.22,North,0,0.0,0.0,85,0.00,,---,0.00,VWS V14.01,2013-09-12 07:34:00,
2013-09-12 01:36:00,60.4,55.9,25.22,North,0,0.0,0.0,85,0.00,,---,0.00,VWS V14.01,2013-09-12 07:36:00,
2013-09-12 01:37:00,60.4,55.9,25.22,North,0,0.0,0.0,85,0.00,,---,0.00,VWS V14.01,2013-09-12 07:37:00,
2013-09-12 01:38:00,60.4,55.9,25.22,North,0,0.0,0.0,85,0.00,,---,0.00,VWS V14.01,2013-09-12 07:38:00,
2013-09-12 01:39:00,60.4,55.9,25.22,North,0,0.0,0.0,85,0.00,,---,0.00,VWS V14.01,2013-09-12 07:39:00,
2013-09-12 01:41:00,60.4,55.9,25.22,North,0,0.0,0.0,85,0.00,,---,0.00,VWS V14.01,2013-09-12 07:41:00,
2013-09-12 01:43:00,60.4,55.9,25.22,North,0,0.0,0.0,85,0.00,,---,0.00,VWS V14.01,2013-09-12 07:43:00,
2013-09-12 01:46:00,60.6,56.7,25.22,North,0,0.0,0.0,87,0.00,,---,0.00,VWS V14.01,2013-09-12 07:46:00,
2013-09-12 01:49:00,60.6,56.7,25.22,North,0,0.0,0.0,87,0.00,,---,0.00,VWS V14.01,2013-09-12 07:49:00,
2013-09-12 01:50:00,60.6,56.7,25.22,North,0,0.0,0.0,87,0.00,,---,0.00,VWS V14.01,2013-09-12 07:50:00,
2013-09-12 01:52:00,60.6,56.7,25.22,North,0,0.0,0.0,87,0.00,,---,0.00,VWS V14.01,2013-09-12 07:52:00,
2013-09-12 01:54:00,60.6,56.7,25.22,North,0,0.0,0.0,87,0.00,,---,0.00,VWS V14.01,2013-09-12 07:54:00,
2013-09-12 01:56:00,60.6,56.7,25.22,North,0,0.0,0.0,87,0.00,,---,0.00,VWS V14.01,2013-09-12 07:56:00,
2013-09-12 01:57:00,60.6,56.7,25.22,North,0,0.0,0.0,87,0.00,,---,0.00,VWS V14.01,2013-09-12 07:57:00,
2013-09-12 01:58:00,60.6,56.7,25.22,North,0,0.0,0.0,87,0.00,,---,0.00,VWS V14.01,2013-09-12 07:58:00,
2013-09-12 02:03:00,61.0,57.1,25.22,North,0,0.0,0.0,87,0.00,,---,0.00,VWS V14.01,2013-09-12 08:03:00,
2013-09-12 02:04:00,61.0,57.1,25.22,North,0,0.0,0.0,87,0.00,,---,0.00,VWS V14.01,2013-09-12 08:04:00,
2013-09-12 02:06:00,61.0,57.1,25.22,North,0,0.0,0.0,87,0.00,,---,0.00,VWS V14.01,2013-09-12 08:06:00,
2013-09-12 02:08:00,60.8,57.2,25.22,North,0,0.0,0.0,88,0.00,,---,0.00,VWS V14.01,2013-09-12 08:08:00,
2013-09-12 02:09:00,60.8,57.2,25.22,North,0,0.0,0.0,88,0.00,,---,0.00,VWS V14.01,2013-09-12 08:09:00,
2013-09-12 02:10:00,60.8,57.2,25.22,North,0,0.0,0.0,88,0.00,,---,0.00,VWS V14.01,2013-09-12 08:10:00,
2013-09-12 02:14:00,60.6,57.4,25.22,North,0,0.0,0.0,89,0.00,,---,0.00,VWS V14.01,2013-09-12 08:14:00,
2013-09-12 02:15:00,60.6,57.4,25.22,North,0,0.0,0.0,89,0.00,,---,0.00,VWS V14.01,2013-09-12 08:15:00,
2013-09-12 02:16:00,60.6,57.4,25.22,North,0,0.0,0.0,89,0.00,,---,0.00,VWS V14.01,2013-09-12 08:16:00,
2013-09-12 02:19:00,60.6,57.4,25.22,North,0,0.0,0.0,89,0.00,,---,0.00,VWS V14.01,2013-09-12 08:19:00,
2013-09-12 02:20:00,60.6,57.4,25.22,North,0,0.0,0.0,89,0.00,,---,0.00,VWS V14.01,2013-09-12 08:20:00,
2013-09-12 02:21:00,60.6,57.4,25.22,North,0,0.0,0.0,89,0.00,,---,0.00,VWS V14.01,2013-09-12 08:21:00,
2013-09-12 02:24:00,60.6,57.4,25.22,North,0,0.0,0.0,89,0.00,,---,0.00,VWS V14.01,2013-09-12 08:24:00,
2013-09-12 02:25:00,60.6,57.4,25.22,North,0,0.0,0.0,89,0.00,,---,0.00,VWS V14.01,2013-09-12 08:25:00,
2013-09-12 02:26:00,60.6,57.4,25.22,North,0,0.0,0.0,89,0.00,,---,0.00,VWS V14.01,2013-09-12 08:26:00,
2013-09-12 02:29:00,60.6,57.4,25.22,North,0,0.0,0.0,89,0.00,,---,0.00,VWS V14.01,2013-09-12 08:29:00,
2013-09-12 02:30:00,60.6,57.4,25.22,North,0,0.0,0.0,89,0.00,,---,0.00,VWS V14.01,2013-09-12 08:30:00,
2013-09-12 02:31:00,60.4,57.5,25.22,North,0,0.0,0.0,90,0.00,,---,0.00,VWS V14.01,2013-09-12 08:31:00,
2013-09-12 02:32:00,60.4,57.5,25.22,North,0,0.0,0.0,90,0.00,,---,0.00,VWS V14.01,2013-09-12 08:32:00,
2013-09-12 02:34:00,60.4,57.5,25.22,North,0,0.0,0.0,90,0.00,,---,0.00,VWS V14.01,2013-09-12 08:34:00,
2013-09-12 02:36:00,60.4,57.5,25.22,North,0,0.0,0.0,90,0.00,,---,0.00,VWS V14.01,2013-09-12 08:36:00,
2013-09-12 02:37:00,60.4,57.5,25.22,North,0,0.0,0.0,90,0.00,,---,0.00,VWS V14.01,2013-09-12 08:37:00,
2013-09-12 02:41:00,60.4,57.5,25.22,North,0,0.0,0.0,90,0.00,,---,0.00,VWS V14.01,2013-09-12 08:41:00,
2013-09-12 02:42:00,60.4,57.5,25.22,North,0,0.0,0.0,90,0.00,,---,0.00,VWS V14.01,2013-09-12 08:42:00,
2013-09-12 02:43:00,60.4,57.5,25.22,North,0,0.0,0.0,90,0.00,,---,0.00,VWS V14.01,2013-09-12 08:43:00,
2013-09-12 02:44:00,60.4,57.5,25.22,North,0,0.0,0.0,90,0.00,,---,0.00,VWS V14.01,2013-09-12 08:44:00,
2013-09-12 02:46:00,60.4,57.5,25.22,North,0,0.0,0.0,90,0.00,,---,0.00,VWS V14.01,2013-09-12 08:46:00,
2013-09-12 02:48:00,60.4,57.5,25.22,North,0,0.0,0.0,90,0.00,,---,0.00,VWS V14.01,2013-09-12 08:48:00,
2013-09-12 02:49:00,60.4,57.5,25.22,North,0,0.0,0.0,90,0.00,,---,0.00,VWS V14.01,2013-09-12 08:49:00,
2013-09-12 02:51:00,60.3,57.9,25.22,North,0,0.0,0.0,92,0.00,,---,0.00,VWS V14.01,2013-09-12 08:51:00,
2013-09-12 02:54:00,60.3,57.9,25.22,North,0,0.0,0.0,92,0.00,,---,0.00,VWS V14.01,2013-09-12 08:54:00,
2013-09-12 02:56:00,60.3,57.9,25.22,North,0,0.0,0.0,92,0.00,,---,0.00,VWS V14.01,2013-09-12 08:56:00,
2013-09-12 02:57:00,60.3,57.9,25.22,North,0,0.0,0.0,92,0.00,,---,0.00,VWS V14.01,2013-09-12 08:57:00,
2013-09-12 02:59:00,60.1,57.8,25.22,North,0,0.0,0.0,92,0.00,,---,0.00,VWS V14.01,2013-09-12 08:59:00,
2013-09-12 03:01:00,60.1,57.8,25.22,North,0,0.0,0.0,92,0.00,,---,0.00,VWS V14.01,2013-09-12 09:01:00,
2013-09-12 03:02:00,60.1,57.8,25.22,North,0,0.0,0.0,92,0.00,,---,0.00,VWS V14.01,2013-09-12 09:02:00,
2013-09-12 03:04:00,60.1,57.8,25.22,North,0,0.0,0.0,92,0.00,,---,0.00,VWS V14.01,2013-09-12 09:04:00,
2013-09-12 03:09:00,60.1,57.8,25.22,North,0,0.0,0.0,92,0.00,,---,0.00,VWS V14.01,2013-09-12 09:09:00,
2013-09-12 03:10:00,60.1,57.8,25.22,North,0,0.0,0.0,92,0.00,,---,0.00,VWS V14.01,2013-09-12 09:10:00,
2013-09-12 03:13:00,60.1,57.8,25.22,North,0,0.0,0.0,92,0.00,,---,0.00,VWS V14.01,2013-09-12 09:13:00,
2013-09-12 03:14:00,60.1,57.8,25.22,North,0,0.0,0.0,92,0.00,,---,0.00,VWS V14.01,2013-09-12 09:14:00,
2013-09-12 03:18:00,59.7,57.4,25.22,North,0,0.0,0.0,92,0.00,,---,0.00,VWS V14.01,2013-09-12 09:18:00,
2013-09-12 03:19:00,59.7,57.4,25.22,North,0,0.0,0.0,92,0.00,,---,0.00,VWS V14.01,2013-09-12 09:19:00,
2013-09-12 03:20:00,59.7,57.4,25.22,North,0,0.0,0.0,92,0.00,,---,0.00,VWS V14.01,2013-09-12 09:20:00,
2013-09-12 03:21:00,59.7,57.4,25.22,North,0,0.0,0.0,92,0.00,,---,0.00,VWS V14.01,2013-09-12 09:21:00,
2013-09-12 03:23:00,59.7,57.4,25.22,North,0,0.0,0.0,92,0.00,,---,0.00,VWS V14.01,2013-09-12 09:23:00,
2013-09-12 03:28:00,59.7,57.4,25.22,North,0,0.0,0.0,92,0.00,,---,0.00,VWS V14.01,2013-09-12 09:28:00,
2013-09-12 03:29:00,59.7,57.4,25.22,North,0,0.0,0.0,92,0.00,,---,0.00,VWS V14.01,2013-09-12 09:29:00,
2013-09-12 03:30:00,59.7,57.4,25.22,North,0,0.0,0.0,92,0.00,,---,0.00,VWS V14.01,2013-09-12 09:30:00,
2013-09-12 03:35:00,59.7,57.4,25.22,North,0,0.0,0.0,92,0.00,,---,0.00,VWS V14.01,2013-09-12 09:35:00,
2013-09-12 03:36:00,59.7,57.4,25.22,North,0,0.0,0.0,92,0.00,,---,0.00,VWS V14.01,2013-09-12 09:36:00,
2013-09-12 03:39:00,59.7,57.4,25.22,North,0,0.0,0.0,92,0.00,,---,0.00,VWS V14.01,2013-09-12 09:39:00,
2013-09-12 03:40:00,59.7,57.4,25.22,North,0,0.0,0.0,92,0.00,,---,0.00,VWS V14.01,2013-09-12 09:40:00,
2013-09-12 03:42:00,59.7,57.4,25.22,North,0,0.0,0.0,92,0.00,,---,0.00,VWS V14.01,2013-09-12 09:42:00,
2013-09-12 03:43:00,59.7,57.4,25.22,North,0,0.0,0.0,92,0.00,,---,0.00,VWS V14.01,2013-09-12 09:43:00,
2013-09-12 03:46:00,59.7,57.4,25.22,North,0,0.0,0.0,92,0.00,,---,0.00,VWS V14.01,2013-09-12 09:46:00,
2013-09-12 03:47:00,59.7,57.4,25.22,North,0,0.0,0.0,92,0.00,,---,0.00,VWS V14.01,2013-09-12 09:47:00,
2013-09-12 03:48:00,59.7,57.4,25.22,North,0,0.0,0.0,92,0.00,,---,0.00,VWS V14.01,2013-09-12 09:48:00,
2013-09-12 03:49:00,59.7,57.4,25.22,North,0,0.0,0.0,92,0.00,,---,0.00,VWS V14.01,2013-09-12 09:49:00,
2013-09-12 03:50:00,59.7,57.4,25.22,North,0,0.0,0.0,92,0.00,,---,0.00,VWS V14.01,2013-09-12 09:50:00,
2013-09-12 03:54:00,59.7,57.4,25.22,North,0,0.0,0.0,92,0.00,,---,0.00,VWS V14.01,2013-09-12 09:54:00,
2013-09-12 03:55:00,59.7,57.4,25.22,North,0,0.0,0.0,92,0.00,,---,0.00,VWS V14.01,2013-09-12 09:55:00,
2013-09-12 03:56:00,59.7,57.4,25.22,North,0,0.0,0.0,92,0.00,,---,0.00,VWS V14.01,2013-09-12 09:56:00,
2013-09-12 03:57:00,59.7,57.4,25.22,North,0,0.0,0.0,92,0.00,,---,0.00,VWS V14.01,2013-09-12 09:57:00,
2013-09-12 03:59:00,59.7,57.4,25.22,North,0,0.0,0.0,92,0.00,,---,0.00,VWS V14.01,2013-09-12 09:59:00,
2013-09-12 04:01:00,59.7,57.4,25.22,North,0,0.0,0.0,92,0.00,,---,0.00,VWS V14.01,2013-09-12 10:01:00,
2013-09-12 04:02:00,59.7,57.4,25.22,North,0,0.0,0.0,92,0.00,,---,0.00,VWS V14.01,2013-09-12 10:02:00,
2013-09-12 04:04:00,59.7,57.4,25.22,North,0,0.0,0.0,92,0.00,,---,0.00,VWS V14.01,2013-09-12 10:04:00,
2013-09-12 04:05:00,59.7,57.4,25.22,North,0,0.0,0.0,92,0.00,,---,0.00,VWS V14.01,2013-09-12 10:05:00,
2013-09-12 04:08:00,59.7,57.4,25.22,North,0,0.0,0.0,92,0.00,,---,0.00,VWS V14.01,2013-09-12 10:08:00,
2013-09-12 04:09:00,59.7,57.4,25.22,North,0,0.0,0.0,92,0.00,,---,0.00,VWS V14.01,2013-09-12 10:09:00,
2013-09-12 04:10:00,59.7,57.4,25.22,North,0,0.0,0.0,92,0.00,,---,0.00,VWS V14.01,2013-09-12 10:10:00,
2013-09-12 04:13:00,59.2,57.2,25.22,North,0,0.0,0.0,93,0.00,,---,0.00,VWS V14.01,2013-09-12 10:13:00,
2013-09-12 04:14:00,59.2,57.2,25.22,North,0,0.0,0.0,93,0.00,,---,0.00,VWS V14.01,2013-09-12 10:14:00,
2013-09-12 04:15:00,59.2,57.2,25.22,North,0,0.0,0.0,93,0.00,,---,0.00,VWS V14.01,2013-09-12 10:15:00,
2013-09-12 04:20:00,59.2,57.2,25.22,North,0,0.0,0.0,93,0.00,,---,0.00,VWS V14.01,2013-09-12 10:20:00,
2013-09-12 04:21:00,59.2,57.2,25.22,North,0,0.0,0.0,93,0.00,,---,0.00,VWS V14.01,2013-09-12 10:21:00,
2013-09-12 04:23:00,59.2,57.2,25.22,North,0,0.0,0.0,93,0.00,,---,0.00,VWS V14.01,2013-09-12 10:23:00,
2013-09-12 04:26:00,59.2,57.2,25.22,North,0,0.0,0.0,93,0.00,,---,0.00,VWS V14.01,2013-09-12 10:26:00,
2013-09-12 04:27:00,59.2,57.2,25.22,North,0,0.0,0.0,93,0.00,,---,0.00,VWS V14.01,2013-09-12 10:27:00,
2013-09-12 04:29:00,59.2,57.2,25.22,North,0,0.0,0.0,93,0.00,,---,0.00,VWS V14.01,2013-09-12 10:29:00,
2013-09-12 04:33:00,59.2,57.2,25.22,North,0,0.0,0.0,93,0.00,,---,0.00,VWS V14.01,2013-09-12 10:33:00,
2013-09-12 04:34:00,59.2,57.2,25.22,North,0,0.0,0.0,93,0.00,,---,0.00,VWS V14.01,2013-09-12 10:34:00,
2013-09-12 04:35:00,59.2,57.2,25.22,North,0,0.0,0.0,93,0.00,,---,0.00,VWS V14.01,2013-09-12 10:35:00,
2013-09-12 04:36:00,59.2,57.2,25.22,North,0,0.0,0.0,93,0.00,,---,0.00,VWS V14.01,2013-09-12 10:36:00,
2013-09-12 04:40:00,59.2,57.2,25.22,North,0,0.0,0.0,93,0.00,,---,0.00,VWS V14.01,2013-09-12 10:40:00,
2013-09-12 04:41:00,59.2,57.2,25.22,North,0,0.0,0.0,93,0.00,,---,0.00,VWS V14.01,2013-09-12 10:41:00,
2013-09-12 04:43:00,59.2,57.2,25.22,North,0,0.0,0.0,93,0.00,,---,0.00,VWS V14.01,2013-09-12 10:43:00,
2013-09-12 04:44:00,59.2,57.2,25.22,North,0,0.0,0.0,93,0.00,,---,0.00,VWS V14.01,2013-09-12 10:44:00,
2013-09-12 04:47:00,59.2,57.2,25.22,North,0,0.0,0.0,93,0.00,,---,0.00,VWS V14.01,2013-09-12 10:47:00,
2013-09-12 04:49:00,59.4,57.6,25.22,North,0,0.0,0.0,94,0.00,,---,0.00,VWS V14.01,2013-09-12 10:49:00,
2013-09-12 04:50:00,59.4,57.6,25.25,North,0,0.0,0.0,94,0.00,,---,0.00,VWS V14.01,2013-09-12 10:50:00,
2013-09-12 04:52:00,59.5,57.8,25.25,North,0,0.0,0.0,94,0.00,,---,0.00,VWS V14.01,2013-09-12 10:52:00,
2013-09-12 04:55:00,59.5,57.8,25.25,North,0,0.0,0.0,94,0.00,,---,0.00,VWS V14.01,2013-09-12 10:55:00,
2013-09-12 04:56:00,59.5,57.8,25.25,North,0,0.0,0.0,94,0.00,,---,0.00,VWS V14.01,2013-09-12 10:56:00,
2013-09-12 04:57:00,59.5,57.8,25.25,North,0,0.0,0.0,94,0.00,,---,0.00,VWS V14.01,2013-09-12 10:57:00,
2013-09-12 05:00:00,59.5,57.8,25.25,North,0,0.0,0.0,94,0.00,,---,0.00,VWS V14.01,2013-09-12 11:00:00,
2013-09-12 05:02:00,59.5,57.8,25.25,North,0,0.0,0.0,94,0.00,,---,0.00,VWS V14.01,2013-09-12 11:02:00,
2013-09-12 05:03:00,59.5,57.8,25.25,North,0,0.0,0.0,94,0.00,,---,0.00,VWS V14.01,2013-09-12 11:03:00,
2013-09-12 05:05:00,59.5,57.8,25.25,North,0,0.0,0.0,94,0.00,,---,0.00,VWS V14.01,2013-09-12 11:05:00,
2013-09-12 05:08:00,59.5,57.8,25.25,North,0,0.0,0.0,94,0.00,,---,0.00,VWS V14.01,2013-09-12 11:08:00,
2013-09-12 05:09:00,59.5,57.8,25.25,North,0,0.0,0.0,94,0.00,,---,0.00,VWS V14.01,2013-09-12 11:09:00,
2013-09-12 05:11:00,59.5,57.8,25.25,North,0,0.0,0.0,94,0.00,,---,0.00,VWS V14.01,2013-09-12 11:11:00,
2013-09-12 05:13:00,59.5,57.8,25.22,North,0,0.0,0.0,94,0.00,,---,0.00,VWS V14.01,2013-09-12 11:13:00,
2013-09-12 05:16:00,59.4,57.9,25.22,North,0,0.0,0.0,95,0.00,,---,0.00,VWS V14.01,2013-09-12 11:16:00,
2013-09-12 05:17:00,59.4,57.9,25.22,North,0,0.0,0.0,95,0.00,,---,0.00,VWS V14.01,2013-09-12 11:17:00,
2013-09-12 05:18:00,59.4,57.9,25.22,North,0,0.0,0.0,95,0.00,,---,0.00,VWS V14.01,2013-09-12 11:18:00,
2013-09-12 05:19:00,59.4,57.9,25.22,North,0,0.0,0.0,95,0.00,,---,0.00,VWS V14.01,2013-09-12 11:19:00,
2013-09-12 05:23:00,59.4,57.9,25.25,North,0,0.0,0.0,95,0.00,,---,0.00,VWS V14.01,2013-09-12 11:23:00,
2013-09-12 05:24:00,59.4,57.9,25.25,North,0,0.0,0.0,95,0.00,,---,0.00,VWS V14.01,2013-09-12 11:24:00,
2013-09-12 05:25:00,59.4,57.9,25.25,North,0,0.0,0.0,95,0.00,,---,0.00,VWS V14.01,2013-09-12 11:25:00,
2013-09-12 05:27:00,59.4,57.9,25.25,North,0,0.0,0.0,95,0.00,,---,0.00,VWS V14.01,2013-09-12 11:27:00,
2013-09-12 05:30:00,59.4,57.9,25.25,North,0,0.0,0.0,95,0.00,,---,0.00,VWS V14.01,2013-09-12 11:30:00,
2013-09-12 05:31:00,59.4,57.9,25.25,North,0,0.0,0.0,95,0.00,,---,0.00,VWS V14.01,2013-09-12 11:31:00,
2013-09-12 05:32:00,59.4,57.9,25.25,North,0,0.0,0.0,95,0.00,,---,0.00,VWS V14.01,2013-09-12 11:32:00,
2013-09-12 05:34:00,59.4,57.9,25.25,North,0,0.0,0.0,95,0.00,,---,0.00,VWS V14.01,2013-09-12 11:34:00,
2013-09-12 05:35:00,59.4,57.9,25.25,North,0,0.0,0.0,95,0.00,,---,0.00,VWS V14.01,2013-09-12 11:35:00,
2013-09-12 05:36:00,59.4,57.9,25.25,North,0,0.0,0.0,95,0.00,,---,0.00,VWS V14.01,2013-09-12 11:36:00,
2013-09-12 05:38:00,59.4,58.2,25.25,North,0,0.0,0.0,96,0.00,,---,0.00,VWS V14.01,2013-09-12 11:38:00,
2013-09-12 05:40:00,59.4,58.2,25.25,North,0,0.0,0.0,96,0.00,,---,0.00,VWS V14.01,2013-09-12 11:40:00,
2013-09-12 05:41:00,59.4,58.2,25.25,North,0,0.0,0.0,96,0.00,,---,0.00,VWS V14.01,2013-09-12 11:41:00,
2013-09-12 05:43:00,59.4,58.2,25.25,North,0,0.0,0.0,96,0.00,,---,0.00,VWS V14.01,2013-09-12 11:43:00,
2013-09-12 05:45:00,59.5,58.4,25.25,North,0,0.0,0.0,96,0.00,,---,0.00,VWS V14.01,2013-09-12 11:45:00,
2013-09-12 05:46:00,59.5,58.4,25.25,North,0,0.0,0.0,96,0.00,,---,0.00,VWS V14.01,2013-09-12 11:46:00,
2013-09-12 05:48:00,59.5,58.4,25.25,North,0,0.0,0.0,96,0.00,,---,0.00,VWS V14.01,2013-09-12 11:48:00,
2013-09-12 05:51:00,59.5,58.4,25.25,North,0,0.0,0.0,96,0.00,,---,0.00,VWS V14.01,2013-09-12 11:51:00,
2013-09-12 05:53:00,59.5,58.4,25.25,North,0,0.0,0.0,96,0.00,,---,0.00,VWS V14.01,2013-09-12 11:53:00,
2013-09-12 05:54:00,59.5,58.4,25.25,North,0,0.0,0.0,96,0.00,,---,0.00,VWS V14.01,2013-09-12 11:54:00,
2013-09-12 05:56:00,59.5,58.4,25.25,North,0,0.0,0.0,96,0.00,,---,0.00,VWS V14.01,2013-09-12 11:56:00,
2013-09-12 05:58:00,59.5,58.4,25.25,North,0,0.0,0.0,96,0.00,,---,0.00,VWS V14.01,2013-09-12 11:58:00,
2013-09-12 06:00:00,59.5,58.4,25.25,North,0,0.0,0.0,96,0.00,,---,0.00,VWS V14.01,2013-09-12 12:00:00,
2013-09-12 06:01:00,59.5,58.4,25.25,North,0,0.0,0.0,96,0.00,,---,0.00,VWS V14.01,2013-09-12 12:01:00,
2013-09-12 06:02:00,59.5,58.4,25.25,North,0,0.0,0.0,96,0.00,,---,0.00,VWS V14.01,2013-09-12 12:02:00,
2013-09-12 06:03:00,61.3,60.5,25.25,North,0,0.0,0.0,97,0.00,,---,0.00,VWS V14.01,2013-09-12 12:03:00,
2013-09-12 06:04:00,61.3,60.5,25.25,North,0,0.0,0.0,97,0.00,,---,0.00,VWS V14.01,2013-09-12 12:04:00,
2013-09-12 06:06:00,61.3,60.5,25.25,North,0,0.0,0.0,97,0.00,,---,0.00,VWS V14.01,2013-09-12 12:06:00,
2013-09-12 06:08:00,61.3,60.5,25.25,North,0,0.0,0.0,97,0.00,,---,0.00,VWS V14.01,2013-09-12 12:08:00,
2013-09-12 06:10:00,61.3,60.5,25.25,North,0,0.0,0.0,97,0.00,,---,0.00,VWS V14.01,2013-09-12 12:10:00,
2013-09-12 06:11:00,61.3,60.5,25.25,North,0,0.0,0.0,97,0.00,,---,0.00,VWS V14.01,2013-09-12 12:11:00,
2013-09-12 06:14:00,61.3,60.5,25.25,North,0,0.0,0.0,97,0.00,,---,0.00,VWS V14.01,2013-09-12 12:14:00,
2013-09-12 06:15:00,61.3,60.5,25.25,North,0,0.0,0.0,97,0.00,,---,0.00,VWS V14.01,2013-09-12 12:15:00,
2013-09-12 06:16:00,61.3,60.5,25.25,North,0,0.0,0.0,97,0.00,,---,0.00,VWS V14.01,2013-09-12 12:16:00,
2013-09-12 06:18:00,61.3,60.5,25.25,North,0,0.0,0.0,97,0.00,,---,0.00,VWS V14.01,2013-09-12 12:18:00,
2013-09-12 06:20:00,61.3,60.5,25.25,North,0,0.0,0.0,97,0.00,,---,0.00,VWS V14.01,2013-09-12 12:20:00,
2013-09-12 06:24:00,62.6,61.5,25.25,North,0,0.0,0.0,96,0.00,,---,0.00,VWS V14.01,2013-09-12 12:24:00,
2013-09-12 06:26:00,62.6,61.5,25.25,North,0,0.0,0.0,96,0.00,,---,0.00,VWS V14.01,2013-09-12 12:26:00,
2013-09-12 06:27:00,62.6,61.5,25.25,North,0,0.0,0.0,96,0.00,,---,0.00,VWS V14.01,2013-09-12 12:27:00,
2013-09-12 06:30:00,62.6,61.5,25.25,North,0,0.0,0.0,96,0.00,,---,0.00,VWS V14.01,2013-09-12 12:30:00,
2013-09-12 06:31:00,62.6,61.5,25.25,North,0,0.0,0.0,96,0.00,,---,0.00,VWS V14.01,2013-09-12 12:31:00,
2013-09-12 06:32:00,62.6,61.5,25.25,North,0,0.0,0.0,96,0.00,,---,0.00,VWS V14.01,2013-09-12 12:32:00,
2013-09-12 06:36:00,62.6,61.5,25.25,North,0,0.0,0.0,96,0.00,,---,0.00,VWS V14.01,2013-09-12 12:36:00,
2013-09-12 06:37:00,62.6,61.5,25.25,North,0,0.0,0.0,96,0.00,,---,0.00,VWS V14.01,2013-09-12 12:37:00,
2013-09-12 06:40:00,62.6,60.8,25.25,North,0,0.0,0.0,94,0.00,,---,0.00,VWS V14.01,2013-09-12 12:40:00,
2013-09-12 06:41:00,62.6,60.8,25.25,North,0,0.0,0.0,94,0.00,,---,0.00,VWS V14.01,2013-09-12 12:41:00,
2013-09-12 06:42:00,62.6,60.8,25.25,North,0,0.0,0.0,94,0.00,,---,0.00,VWS V14.01,2013-09-12 12:42:00,
2013-09-12 06:44:00,62.6,60.8,25.25,North,0,0.0,0.0,94,0.00,,---,0.00,VWS V14.01,2013-09-12 12:44:00,
2013-09-12 06:45:00,62.6,60.8,25.25,North,0,0.0,0.0,94,0.00,,---,0.00,VWS V14.01,2013-09-12 12:45:00,
2013-09-12 06:46:00,62.6,60.8,25.25,North,0,0.0,0.0,94,0.00,,---,0.00,VWS V14.01,2013-09-12 12:46:00,
2013-09-12 06:47:00,62.6,60.8,25.25,North,0,0.0,0.0,94,0.00,,---,0.00,VWS V14.01,2013-09-12 12:47:00,
2013-09-12 06:48:00,63.0,60.9,25.25,North,0,0.0,0.0,93,0.00,,---,0.00,VWS V14.01,2013-09-12 12:48:00,
2013-09-12 06:49:00,63.0,60.9,25.25,North,0,0.0,0.0,93,0.00,,---,0.00,VWS V14.01,2013-09-12 12:49:00,
2013-09-12 06:51:00,63.0,60.9,25.25,North,0,0.0,0.0,93,0.00,,---,0.00,VWS V14.01,2013-09-12 12:51:00,
2013-09-12 06:54:00,63.1,61.1,25.25,North,0,0.0,0.0,93,0.00,,---,0.00,VWS V14.01,2013-09-12 12:54:00,
2013-09-12 06:56:00,63.1,61.1,25.25,North,0,0.0,0.0,93,0.00,,---,0.00,VWS V14.01,2013-09-12 12:56:00,
2013-09-12 06:58:00,63.1,61.1,25.25,North,0,0.0,0.0,93,0.00,,---,0.00,VWS V14.01,2013-09-12 12:58:00,
2013-09-12 06:59:00,63.1,61.1,25.25,North,0,0.0,0.0,93,0.00,,---,0.00,VWS V14.01,2013-09-12 12:59:00,
2013-09-12 07:01:00,63.1,61.1,25.25,North,0,0.0,0.0,93,0.00,,---,0.00,VWS V14.01,2013-09-12 13:01:00,
2013-09-12 07:02:00,63.1,61.1,25.25,North,0,0.0,0.0,93,0.00,,---,0.00,VWS V14.01,2013-09-12 13:02:00,
2013-09-12 07:03:00,63.1,61.1,25.25,North,0,0.0,0.0,93,0.00,,---,0.00,VWS V14.01,2013-09-12 13:03:00,
2013-09-12 07:05:00,63.1,61.1,25.25,North,0,0.0,0.0,93,0.00,,---,0.00,VWS V14.01,2013-09-12 13:05:00,
2013-09-12 07:07:00,63.1,61.1,25.25,North,0,0.0,0.0,93,0.00,,---,0.00,VWS V14.01,2013-09-12 13:07:00,
2013-09-12 07:09:00,63.1,61.1,25.25,North,0,0.0,0.0,93,0.00,,---,0.00,VWS V14.01,2013-09-12 13:09:00,
2013-09-12 07:10:00,63.1,61.1,25.25,North,0,0.0,0.0,93,0.00,,---,0.00,VWS V14.01,2013-09-12 13:10:00,
2013-09-12 07:11:00,63.1,61.1,25.28,North,0,0.0,0.0,93,0.00,,---,0.00,VWS V14.01,2013-09-12 13:11:00,
2013-09-12 07:12:00,64.0,61.0,25.28,North,0,0.0,0.0,90,0.00,,---,0.00,VWS V14.01,2013-09-12 13:12:00,
2013-09-12 07:13:00,64.0,61.0,25.28,North,0,0.0,0.0,90,0.00,,---,0.00,VWS V14.01,2013-09-12 13:13:00,
2013-09-12 07:14:00,64.0,61.0,25.28,North,0,0.0,0.0,90,0.00,,---,0.00,VWS V14.01,2013-09-12 13:14:00,
2013-09-12 07:15:00,64.0,61.0,25.28,North,0,0.0,0.0,90,0.00,,---,0.00,VWS V14.01,2013-09-12 13:15:00,
2013-09-12 07:17:00,64.4,61.1,25.28,North,0,0.0,0.0,89,0.00,,---,0.00,VWS V14.01,2013-09-12 13:17:00,
2013-09-12 07:19:00,64.4,61.1,25.28,North,0,0.0,0.0,89,0.00,,---,0.00,VWS V14.01,2013-09-12 13:19:00,
2013-09-12 07:20:00,64.4,61.1,25.28,North,0,0.0,0.0,89,0.00,,---,0.00,VWS V14.01,2013-09-12 13:20:00,
2013-09-12 07:22:00,64.4,61.1,25.28,North,0,0.0,0.0,89,0.00,,---,0.00,VWS V14.01,2013-09-12 13:22:00,
2013-09-12 07:25:00,64.4,61.1,25.28,North,0,0.0,0.0,89,0.00,,---,0.00,VWS V14.01,2013-09-12 13:25:00,
2013-09-12 07:27:00,64.4,61.1,25.28,North,0,0.0,0.0,89,0.00,,---,0.00,VWS V14.01,2013-09-12 13:27:00,
2013-09-12 07:30:00,64.4,61.1,25.28,North,0,0.0,0.0,89,0.00,,---,0.00,VWS V14.01,2013-09-12 13:30:00,
2013-09-12 07:31:00,64.4,61.1,25.28,North,0,0.0,0.0,89,0.00,,---,0.00,VWS V14.01,2013-09-12 13:31:00,
2013-09-12 07:33:00,64.4,61.1,25.28,North,0,0.0,0.0,89,0.00,,---,0.00,VWS V14.01,2013-09-12 13:33:00,
2013-09-12 07:36:00,67.5,61.4,25.28,North,0,0.0,0.0,81,0.00,,---,0.00,VWS V14.01,2013-09-12 13:36:00,
2013-09-12 07:38:00,67.5,61.4,25.28,North,0,0.0,0.0,81,0.00,,---,0.00,VWS V14.01,2013-09-12 13:38:00,
2013-09-12 07:40:00,67.5,61.4,25.28,North,0,0.0,0.0,81,0.00,,---,0.00,VWS V14.01,2013-09-12 13:40:00,
2013-09-12 07:41:00,67.5,61.4,25.28,North,0,0.0,0.0,81,0.00,,---,0.00,VWS V14.01,2013-09-12 13:41:00,
2013-09-12 07:44:00,67.5,61.4,25.28,North,0,0.0,0.0,81,0.00,,---,0.00,VWS V14.01,2013-09-12 13:44:00,
2013-09-12 07:45:00,67.5,61.4,25.28,North,0,0.0,0.0,81,0.00,,---,0.00,VWS V14.01,2013-09-12 13:45:00,
2013-09-12 07:46:00,67.5,61.4,25.28,North,0,0.0,0.0,81,0.00,,---,0.00,VWS V14.01,2013-09-12 13:46:00,
2013-09-12 07:48:00,67.5,61.4,25.28,North,0,0.0,0.0,81,0.00,,---,0.00,VWS V14.01,2013-09-12 13:48:00,
2013-09-12 07:49:00,67.5,61.4,25.28,North,0,0.0,0.0,81,0.00,,---,0.00,VWS V14.01,2013-09-12 13:49:00,
2013-09-12 07:50:00,70.5,57.8,25.28,North,0,0.0,0.0,64,0.00,,---,0.00,VWS V14.01,2013-09-12 13:50:00,
2013-09-12 07:51:00,70.5,57.8,25.28,North,0,0.0,0.0,64,0.00,,---,0.00,VWS V14.01,2013-09-12 13:51:00,
2013-09-12 07:52:00,70.5,57.8,25.28,North,0,0.0,0.0,64,0.00,,---,0.00,VWS V14.01,2013-09-12 13:52:00,
2013-09-12 07:53:00,70.5,57.8,25.28,North,0,0.0,0.0,64,0.00,,---,0.00,VWS V14.01,2013-09-12 13:53:00,
2013-09-12 07:55:00,71.2,57.1,25.28,North,0,0.0,0.0,61,0.00,,---,0.00,VWS V14.01,2013-09-12 13:55:00,
2013-09-12 07:56:00,71.2,57.1,25.28,North,0,0.0,0.0,61,0.00,,---,0.00,VWS V14.01,2013-09-12 13:56:00,
2013-09-12 07:58:00,71.2,57.1,25.28,North,0,0.0,0.0,61,0.00,,---,0.00,VWS V14.01,2013-09-12 13:58:00,
2013-09-12 08:03:00,71.8,56.2,25.28,North,0,0.0,0.0,58,0.00,,---,0.00,VWS V14.01,2013-09-12 14:03:00,
2013-09-12 08:04:00,71.8,56.2,25.28,North,0,0.0,0.0,58,0.00,,---,0.00,VWS V14.01,2013-09-12 14:04:00,
2013-09-12 08:05:00,71.8,56.2,25.28,North,0,0.0,0.0,58,0.00,,---,0.00,VWS V14.01,2013-09-12 14:05:00,
2013-09-12 08:07:00,71.8,56.2,25.28,North,0,0.0,0.0,58,0.00,,---,0.00,VWS V14.01,2013-09-12 14:07:00,
2013-09-12 08:10:00,72.7,56.1,25.28,North,0,0.0,0.0,56,0.00,,---,0.00,VWS V14.01,2013-09-12 14:10:00,
2013-09-12 08:12:00,72.7,56.1,25.28,North,0,0.0,0.0,56,0.00,,---,0.00,VWS V14.01,2013-09-12 14:12:00,
2013-09-12 08:15:00,72.7,56.1,25.28,North,0,0.0,0.0,56,0.00,,---,0.00,VWS V14.01,2013-09-12 14:15:00,
2013-09-12 08:17:00,72.7,56.1,25.28,North,0,0.0,0.0,56,0.00,,---,0.00,VWS V14.01,2013-09-12 14:17:00,
2013-09-12 08:18:00,72.7,56.1,25.28,North,0,0.0,0.0,56,0.00,,---,0.00,VWS V14.01,2013-09-12 14:18:00,
2013-09-12 08:20:00,70.7,54.2,25.28,North,0,0.0,0.0,56,0.00,,---,0.00,VWS V14.01,2013-09-12 14:20:00,
2013-09-12 08:22:00,70.2,55.2,25.28,North,0,0.0,0.0,59,0.00,,---,0.00,VWS V14.01,2013-09-12 14:22:00,
2013-09-12 08:24:00,70.2,55.6,25.28,North,0,0.0,0.0,60,0.00,,---,0.00,VWS V14.01,2013-09-12 14:24:00,
2013-09-12 08:25:00,70.2,55.6,25.28,North,0,0.0,0.0,60,0.00,,---,0.00,VWS V14.01,2013-09-12 14:25:00,
2013-09-12 08:28:00,70.2,55.6,25.28,North,0,0.0,0.0,60,0.00,,---,0.00,VWS V14.01,2013-09-12 14:28:00,
2013-09-12 08:31:00,70.7,56.6,25.28,North,0,0.0,0.0,61,0.00,,---,0.00,VWS V14.01,2013-09-12 14:31:00,
2013-09-12 08:33:00,70.7,56.6,25.28,North,0,0.0,0.0,61,0.00,,---,0.00,VWS V14.01,2013-09-12 14:33:00,
2013-09-12 08:36:00,70.7,56.6,25.28,North,0,0.0,0.0,61,0.00,,---,0.00,VWS V14.01,2013-09-12 14:36:00,
2013-09-12 08:37:00,70.7,56.6,25.28,North,0,0.0,0.0,61,0.00,,---,0.00,VWS V14.01,2013-09-12 14:37:00,
2013-09-12 08:38:00,70.7,56.6,25.28,North,0,0.0,0.0,61,0.00,,---,0.00,VWS V14.01,2013-09-12 14:38:00,
2013-09-12 08:41:00,70.7,56.6,25.28,North,0,0.0,0.0,61,0.00,,---,0.00,VWS V14.01,2013-09-12 14:41:00,
2013-09-12 08:42:00,70.7,56.6,25.28,North,0,0.0,0.0,61,0.00,,---,0.00,VWS V14.01,2013-09-12 14:42:00,
2013-09-12 08:43:00,70.7,56.6,25.28,North,0,0.0,0.0,61,0.00,,---,0.00,VWS V14.01,2013-09-12 14:43:00,
2013-09-12 08:46:00,70.7,56.6,25.28,North,0,0.0,0.0,61,0.00,,---,0.00,VWS V14.01,2013-09-12 14:46:00,
2013-09-12 08:48:00,72.9,55.8,25.28,North,0,0.0,0.0,55,0.00,,---,0.00,VWS V14.01,2013-09-12 14:48:00,
2013-09-12 08:49:00,72.9,55.8,25.28,North,0,0.0,0.0,55,0.00,,---,0.00,VWS V14.01,2013-09-12 14:49:00,
2013-09-12 08:50:00,72.9,55.8,25.28,North,0,0.0,0.0,55,0.00,,---,0.00,VWS V14.01,2013-09-12 14:50:00,
2013-09-12 08:53:00,72.9,55.8,25.28,North,0,0.0,0.0,55,0.00,,---,0.00,VWS V14.01,2013-09-12 14:53:00,
2013-09-12 08:55:00,72.9,55.8,25.28,North,0,0.0,0.0,55,0.00,,---,0.00,VWS V14.01,2013-09-12 14:55:00,
2013-09-12 08:56:00,72.9,55.8,25.28,North,0,0.0,0.0,55,0.00,,---,0.00,VWS V14.01,2013-09-12 14:56:00,
2013-09-12 08:58:00,72.9,55.8,25.28,North,0,0.0,0.0,55,0.00,,---,0.00,VWS V14.01,2013-09-12 14:58:00,
2013-09-12 09:01:00,72.9,55.8,25.28,North,0,0.0,0.0,55,0.00,,---,0.00,VWS V14.01,2013-09-12 15:01:00,
2013-09-12 09:02:00,72.9,55.8,25.28,North,0,0.0,0.0,55,0.00,,---,0.00,VWS V14.01,2013-09-12 15:02:00,
2013-09-12 09:03:00,72.9,55.8,25.28,North,0,0.0,0.0,55,0.00,,---,0.00,VWS V14.01,2013-09-12 15:03:00,
2013-09-12 09:04:00,72.9,55.8,25.28,North,0,0.0,0.0,55,0.00,,---,0.00,VWS V14.01,2013-09-12 15:04:00,
2013-09-12 09:06:00,72.9,55.8,25.28,North,0,0.0,0.0,55,0.00,,---,0.00,VWS V14.01,2013-09-12 15:06:00,
2013-09-12 09:08:00,72.9,55.8,25.28,North,0,0.0,0.0,55,0.00,,---,0.00,VWS V14.01,2013-09-12 15:08:00,
2013-09-12 09:11:00,74.1,53.2,25.28,North,0,0.0,0.0,48,0.00,,---,0.00,VWS V14.01,2013-09-12 15:11:00,
2013-09-12 09:12:00,74.1,53.2,25.28,North,0,0.0,0.0,48,0.00,,---,0.00,VWS V14.01,2013-09-12 15:12:00,
2013-09-12 09:13:00,74.1,53.2,25.28,North,0,0.0,0.0,48,0.00,,---,0.00,VWS V14.01,2013-09-12 15:13:00,
2013-09-12 09:14:00,74.1,53.2,25.28,North,0,0.0,0.0,48,0.00,,---,0.00,VWS V14.01,2013-09-12 15:14:00,
2013-09-12 09:17:00,74.7,53.1,25.28,North,0,0.0,0.0,47,0.00,,---,0.00,VWS V14.01,2013-09-12 15:17:00,
2013-09-12 09:18:00,74.7,53.1,25.28,North,0,0.0,0.0,47,0.00,,---,0.00,VWS V14.01,2013-09-12 15:18:00,
2013-09-12 09:20:00,74.7,53.1,25.28,North,0,0.0,0.0,47,0.00,,---,0.00,VWS V14.01,2013-09-12 15:20:00,
2013-09-12 09:21:00,74.7,53.1,25.28,North,0,0.0,0.0,47,0.00,,---,0.00,VWS V14.01,2013-09-12 15:21:00,
2013-09-12 09:25:00,74.7,53.1,25.28,North,0,0.0,0.0,47,0.00,,---,0.00,VWS V14.01,2013-09-12 15:25:00,
2013-09-12 09:29:00,74.7,53.1,25.28,North,0,0.0,0.0,47,0.00,,---,0.00,VWS V14.01,2013-09-12 15:29:00,
2013-09-12 09:30:00,74.7,53.1,25.28,North,0,0.0,0.0,47,0.00,,---,0.00,VWS V14.01,2013-09-12 15:30:00,
2013-09-12 09:31:00,74.7,53.1,25.28,North,0,0.0,0.0,47,0.00,,---,0.00,VWS V14.01,2013-09-12 15:31:00,
2013-09-12 09:32:00,74.7,53.1,25.28,North,0,0.0,0.0,47,0.00,,---,0.00,VWS V14.01,2013-09-12 15:32:00,
2013-09-12 09:34:00,76.3,53.4,25.28,North,0,0.0,0.0,45,0.00,,---,0.00,VWS V14.01,2013-09-12 15:34:00,
2013-09-12 09:36:00,76.3,53.4,25.28,North,0,0.0,0.0,45,0.00,,---,0.00,VWS V14.01,2013-09-12 15:36:00,
2013-09-12 09:38:00,76.6,54.3,25.28,North,0,0.0,0.0,46,0.00,,---,0.00,VWS V14.01,2013-09-12 15:38:00,
2013-09-12 09:39:00,76.6,54.3,25.28,North,0,0.0,0.0,46,0.00,,---,0.00,VWS V14.01,2013-09-12 15:39:00,
2013-09-12 09:42:00,76.6,54.3,25.28,North,0,0.0,0.0,46,0.00,,---,0.00,VWS V14.01,2013-09-12 15:42:00,
2013-09-12 09:43:00,76.6,54.3,25.28,North,0,0.0,0.0,46,0.00,,---,0.00,VWS V14.01,2013-09-12 15:43:00,
2013-09-12 09:44:00,76.6,54.3,25.28,North,0,0.0,0.0,46,0.00,,---,0.00,VWS V14.01,2013-09-12 15:44:00,
2013-09-12 09:49:00,76.6,54.3,25.28,North,0,0.0,0.0,46,0.00,,---,0.00,VWS V14.01,2013-09-12 15:49:00,
2013-09-12 09:50:00,76.6,54.3,25.28,North,0,0.0,0.0,46,0.00,,---,0.00,VWS V14.01,2013-09-12 15:50:00,
2013-09-12 09:51:00,76.6,54.3,25.28,North,0,0.0,0.0,46,0.00,,---,0.00,VWS V14.01,2013-09-12 15:51:00,
2013-09-12 09:55:00,76.6,54.3,25.28,North,0,0.0,0.0,46,0.00,,---,0.00,VWS V14.01,2013-09-12 15:55:00,
2013-09-12 09:56:00,76.6,54.3,25.28,North,0,0.0,0.0,46,0.00,,---,0.00,VWS V14.01,2013-09-12 15:56:00,
2013-09-12 09:57:00,76.6,54.3,25.28,North,0,0.0,0.0,46,0.00,,---,0.00,VWS V14.01,2013-09-12 15:57:00,
2013-09-12 09:59:00,76.6,54.3,25.28,North,0,0.0,0.0,46,0.00,,---,0.00,VWS V14.01,2013-09-12 15:59:00,
2013-09-12 10:00:00,76.6,54.3,25.28,North,0,0.0,0.0,46,0.00,,---,0.00,VWS V14.01,2013-09-12 16:00:00,
2013-09-12 10:04:00,76.6,54.3,25.28,North,0,0.0,0.0,46,0.00,,---,0.00,VWS V14.01,2013-09-12 16:04:00,
2013-09-12 10:05:00,76.6,54.3,25.28,North,0,0.0,0.0,46,0.00,,---,0.00,VWS V14.01,2013-09-12 16:05:00,
2013-09-12 10:08:00,76.6,54.3,25.28,North,0,0.0,0.0,46,0.00,,---,0.00,VWS V14.01,2013-09-12 16:08:00,
2013-09-12 10:09:00,76.6,54.3,25.28,North,0,0.0,0.0,46,0.00,,---,0.00,VWS V14.01,2013-09-12 16:09:00,
2013-09-12 10:11:00,76.6,54.3,25.25,North,0,0.0,0.0,46,0.00,,---,0.00,VWS V14.01,2013-09-12 16:11:00,
2013-09-12 10:15:00,76.6,54.3,25.25,North,0,0.0,0.0,46,0.00,,---,0.00,VWS V14.01,2013-09-12 16:15:00,
2013-09-12 10:16:00,76.6,54.3,25.25,North,0,0.0,0.0,46,0.00,,---,0.00,VWS V14.01,2013-09-12 16:16:00,
2013-09-12 10:17:00,76.6,54.3,25.25,North,0,0.0,0.0,46,0.00,,---,0.00,VWS V14.01,2013-09-12 16:17:00,
2013-09-12 10:18:00,76.6,54.3,25.25,North,0,0.0,0.0,46,0.00,,---,0.00,VWS V14.01,2013-09-12 16:18:00,
2013-09-12 10:20:00,76.6,54.3,25.25,North,0,0.0,0.0,46,0.00,,---,0.00,VWS V14.01,2013-09-12 16:20:00,
2013-09-12 10:21:00,76.6,54.3,25.25,North,0,0.0,0.0,46,0.00,,---,0.00,VWS V14.01,2013-09-12 16:21:00,
2013-09-12 10:22:00,76.6,54.3,25.25,North,0,0.0,0.0,46,0.00,,---,0.00,VWS V14.01,2013-09-12 16:22:00,
2013-09-12 10:23:00,76.6,54.3,25.25,North,0,0.0,0.0,46,0.00,,---,0.00,VWS V14.01,2013-09-12 16:23:00,
2013-09-12 10:25:00,76.6,54.3,25.25,North,0,0.0,0.0,46,0.00,,---,0.00,VWS V14.01,2013-09-12 16:25:00,
2013-09-12 10:26:00,76.6,54.3,25.25,North,0,0.0,0.0,46,0.00,,---,0.00,VWS V14.01,2013-09-12 16:26:00,
2013-09-12 10:28:00,76.6,54.3,25.25,North,0,0.0,0.0,46,0.00,,---,0.00,VWS V14.01,2013-09-12 16:28:00,
2013-09-12 10:29:00,76.6,54.3,25.25,North,0,0.0,0.0,46,0.00,,---,0.00,VWS V14.01,2013-09-12 16:29:00,
2013-09-12 10:31:00,76.6,54.3,25.25,North,0,0.0,0.0,46,0.00,,---,0.00,VWS V14.01,2013-09-12 16:31:00,
2013-09-12 10:34:00,76.6,54.3,25.25,North,0,0.0,0.0,46,0.00,,---,0.00,VWS V14.01,2013-09-12 16:34:00,
2013-09-12 10:36:00,76.6,54.3,25.25,North,0,0.0,0.0,46,0.00,,---,0.00,VWS V14.01,2013-09-12 16:36:00,
2013-09-12 10:37:00,76.6,54.3,25.25,North,0,0.0,0.0,46,0.00,,---,0.00,VWS V14.01,2013-09-12 16:37:00,
2013-09-12 10:39:00,76.6,54.3,25.25,North,0,0.0,0.0,46,0.00,,---,0.00,VWS V14.01,2013-09-12 16:39:00,
2013-09-12 10:42:00,76.6,54.3,25.25,North,0,0.0,0.0,46,0.00,,---,0.00,VWS V14.01,2013-09-12 16:42:00,
2013-09-12 10:44:00,72.5,54.4,25.25,North,0,0.0,0.0,53,0.00,,---,0.00,VWS V14.01,2013-09-12 16:44:00,
2013-09-12 10:47:00,72.5,54.4,25.25,North,0,0.0,0.0,53,0.00,,---,0.00,VWS V14.01,2013-09-12 16:47:00,
2013-09-12 10:48:00,72.5,54.4,25.25,North,0,0.0,0.0,53,0.00,,---,0.00,VWS V14.01,2013-09-12 16:48:00,
2013-09-12 10:49:00,72.5,54.4,25.25,North,0,0.0,0.0,53,0.00,,---,0.00,VWS V14.01,2013-09-12 16:49:00,
2013-09-12 10:52:00,72.5,54.4,25.25,North,0,0.0,0.0,53,0.00,,---,0.00,VWS V14.01,2013-09-12 16:52:00,
2013-09-12 10:53:00,72.5,54.4,25.25,North,0,0.0,0.0,53,0.00,,---,0.00,VWS V14.01,2013-09-12 16:53:00,
2013-09-12 10:54:00,72.5,54.4,25.25,North,0,0.0,0.0,53,0.00,,---,0.00,VWS V14.01,2013-09-12 16:54:00,
2013-09-12 10:55:00,72.5,54.4,25.25,North,0,0.0,0.0,53,0.00,,---,0.00,VWS V14.01,2013-09-12 16:55:00,
2013-09-12 11:00:00,72.5,54.4,25.25,North,0,0.0,0.0,53,0.00,,---,0.00,VWS V14.01,2013-09-12 17:00:00,
2013-09-12 11:01:00,72.5,54.4,25.25,North,0,0.0,0.0,53,0.00,,---,0.00,VWS V14.01,2013-09-12 17:01:00,
2013-09-12 11:03:00,72.5,54.4,25.25,North,0,0.0,0.0,53,0.00,,---,0.00,VWS V14.01,2013-09-12 17:03:00,
2013-09-12 11:04:00,72.5,54.4,25.25,North,0,0.0,0.0,53,0.00,,---,0.00,VWS V14.01,2013-09-12 17:04:00,
2013-09-12 11:07:00,72.7,53.0,25.25,North,0,0.0,0.0,50,0.00,,---,0.00,VWS V14.01,2013-09-12 17:07:00,
2013-09-12 11:08:00,72.7,53.0,25.25,North,0,0.0,0.0,50,0.00,,---,0.00,VWS V14.01,2013-09-12 17:08:00,
2013-09-12 11:10:00,72.7,53.0,25.25,North,0,0.0,0.0,50,0.00,,---,0.00,VWS V14.01,2013-09-12 17:10:00,
2013-09-12 11:11:00,72.7,53.0,25.25,North,0,0.0,0.0,50,0.00,,---,0.00,VWS V14.01,2013-09-12 17:11:00,
2013-09-12 11:13:00,72.7,53.0,25.25,North,0,0.0,0.0,50,0.00,,---,0.00,VWS V14.01,2013-09-12 17:13:00,
2013-09-12 11:17:00,72.7,53.0,25.25,North,0,0.0,0.0,50,0.00,,---,0.00,VWS V14.01,2013-09-12 17:17:00,
2013-09-12 11:19:00,72.7,53.0,25.25,North,0,0.0,0.0,50,0.00,,---,0.00,VWS V14.01,2013-09-12 17:19:00,
2013-09-12 11:21:00,72.7,53.0,25.25,North,0,0.0,0.0,50,0.00,,---,0.00,VWS V14.01,2013-09-12 17:21:00,
2013-09-12 11:24:00,72.7,53.0,25.25,North,0,0.0,0.0,50,0.00,,---,0.00,VWS V14.01,2013-09-12 17:24:00,
2013-09-12 11:26:00,72.7,53.0,25.25,North,0,0.0,0.0,50,0.00,,---,0.00,VWS V14.01,2013-09-12 17:26:00,
2013-09-12 11:27:00,72.7,53.0,25.25,North,0,0.0,0.0,50,0.00,,---,0.00,VWS V14.01,2013-09-12 17:27:00,
2013-09-12 11:28:00,72.7,53.0,25.25,North,0,0.0,0.0,50,0.00,,---,0.00,VWS V14.01,2013-09-12 17:28:00,
2013-09-12 11:29:00,72.7,53.0,25.25,North,0,0.0,0.0,50,0.00,,---,0.00,VWS V14.01,2013-09-12 17:29:00,
2013-09-12 11:33:00,72.7,53.0,25.25,North,0,0.0,0.0,50,0.00,,---,0.00,VWS V14.01,2013-09-12 17:33:00,
2013-09-12 11:34:00,72.7,53.0,25.25,North,0,0.0,0.0,50,0.00,,---,0.00,VWS V14.01,2013-09-12 17:34:00,
2013-09-12 11:35:00,72.7,53.0,25.25,North,0,0.0,0.0,50,0.00,,---,0.00,VWS V14.01,2013-09-12 17:35:00,
2013-09-12 11:36:00,72.7,53.0,25.25,North,0,0.0,0.0,50,0.00,,---,0.00,VWS V14.01,2013-09-12 17:36:00,
2013-09-12 11:40:00,72.7,53.0,25.25,North,0,0.0,0.0,50,0.00,,---,0.00,VWS V14.01,2013-09-12 17:40:00,
2013-09-12 11:41:00,71.6,54.6,25.25,North,0,0.0,0.0,55,0.00,,---,0.00,VWS V14.01,2013-09-12 17:41:00,
2013-09-12 11:42:00,71.6,54.6,25.25,North,0,0.0,0.0,55,0.00,,---,0.00,VWS V14.01,2013-09-12 17:42:00,
2013-09-12 11:44:00,71.6,54.6,25.25,North,0,0.0,0.0,55,0.00,,---,0.00,VWS V14.01,2013-09-12 17:44:00,
2013-09-12 11:47:00,71.6,54.6,25.25,North,0,0.0,0.0,55,0.00,,---,0.00,VWS V14.01,2013-09-12 17:47:00,
2013-09-12 11:49:00,71.6,54.6,25.25,North,0,0.0,0.0,55,0.00,,---,0.00,VWS V14.01,2013-09-12 17:49:00,
2013-09-12 11:50:00,71.6,54.6,25.25,North,0,0.0,0.0,55,0.00,,---,0.00,VWS V14.01,2013-09-12 17:50:00,
2013-09-12 11:51:00,71.6,54.6,25.25,North,0,0.0,0.0,55,0.00,,---,0.00,VWS V14.01,2013-09-12 17:51:00,
2013-09-12 11:52:00,71.6,54.6,25.25,North,0,0.0,0.0,55,0.00,,---,0.00,VWS V14.01,2013-09-12 17:52:00,
2013-09-12 11:55:00,71.6,53.6,25.22,North,0,0.0,0.0,53,0.00,,---,0.00,VWS V14.01,2013-09-12 17:55:00,
2013-09-12 11:56:00,71.6,53.6,25.22,North,0,0.0,0.0,53,0.00,,---,0.00,VWS V14.01,2013-09-12 17:56:00,
2013-09-12 11:57:00,71.6,53.6,25.22,North,0,0.0,0.0,53,0.00,,---,0.00,VWS V14.01,2013-09-12 17:57:00,
2013-09-12 11:58:00,71.6,53.6,25.22,North,0,0.0,0.0,53,0.00,,---,0.00,VWS V14.01,2013-09-12 17:58:00,
2013-09-12 11:59:00,71.6,53.6,25.22,North,0,0.0,0.0,53,0.00,,---,0.00,VWS V14.01,2013-09-12 17:59:00,
2013-09-12 12:00:00,71.6,53.6,25.22,North,0,0.0,0.0,53,0.00,,---,0.00,VWS V14.01,2013-09-12 18:00:00,
2013-09-12 12:02:00,71.6,53.6,25.22,North,0,0.0,0.0,53,0.00,,---,0.00,VWS V14.01,2013-09-12 18:02:00,
2013-09-12 12:05:00,71.6,53.6,25.22,North,0,0.0,0.0,53,0.00,,---,0.00,VWS V14.01,2013-09-12 18:05:00,
2013-09-12 12:06:00,71.6,53.6,25.22,North,0,0.0,0.0,53,0.00,,---,0.00,VWS V14.01,2013-09-12 18:06:00,
2013-09-12 12:07:00,71.6,53.6,25.22,North,0,0.0,0.0,53,0.00,,---,0.00,VWS V14.01,2013-09-12 18:07:00,
2013-09-12 12:11:00,71.6,53.6,25.22,North,0,0.0,0.0,53,0.00,,---,0.00,VWS V14.01,2013-09-12 18:11:00,
2013-09-12 12:12:00,71.6,53.6,25.22,North,0,0.0,0.0,53,0.00,,---,0.00,VWS V14.01,2013-09-12 18:12:00,
2013-09-12 12:13:00,71.6,53.6,25.22,North,0,0.0,0.0,53,0.00,,---,0.00,VWS V14.01,2013-09-12 18:13:00,
2013-09-12 12:14:00,71.6,53.6,25.22,North,0,0.0,0.0,53,0.00,,---,0.00,VWS V14.01,2013-09-12 18:14:00,
2013-09-12 12:15:00,71.6,53.6,25.22,North,0,0.0,0.0,53,0.00,,---,0.00,VWS V14.01,2013-09-12 18:15:00,
2013-09-12 12:17:00,76.8,52.7,25.22,North,0,0.0,0.0,43,0.00,,---,0.00,VWS V14.01,2013-09-12 18:17:00,
2013-09-12 12:20:00,76.8,52.7,25.22,North,0,0.0,0.0,43,0.00,,---,0.00,VWS V14.01,2013-09-12 18:20:00,
2013-09-12 12:21:00,76.8,52.7,25.22,North,0,0.0,0.0,43,0.00,,---,0.00,VWS V14.01,2013-09-12 18:21:00,
2013-09-12 12:23:00,76.8,52.7,25.22,North,0,0.0,0.0,43,0.00,,---,0.00,VWS V14.01,2013-09-12 18:23:00,
2013-09-12 12:24:00,76.8,52.7,25.22,North,0,0.0,0.0,43,0.00,,---,0.00,VWS V14.01,2013-09-12 18:24:00,
2013-09-12 12:26:00,76.8,52.7,25.22,North,0,0.0,0.0,43,0.00,,---,0.00,VWS V14.01,2013-09-12 18:26:00,
2013-09-12 12:27:00,76.8,52.7,25.22,North,0,0.0,0.0,43,0.00,,---,0.00,VWS V14.01,2013-09-12 18:27:00,
2013-09-12 12:30:00,76.8,52.7,25.22,North,0,0.0,0.0,43,0.00,,---,0.00,VWS V14.01,2013-09-12 18:30:00,
2013-09-12 12:31:00,74.3,51.6,25.22,North,0,0.0,0.0,45,0.00,,---,0.00,VWS V14.01,2013-09-12 18:31:00,
2013-09-12 12:32:00,74.3,51.6,25.22,WNW,287,2.7,2.7,45,0.00,,---,0.00,VWS V14.01,2013-09-12 18:32:00,
2013-09-12 12:35:00,74.3,51.6,25.22,WNW,287,2.7,2.7,45,0.00,,---,0.00,VWS V14.01,2013-09-12 18:35:00,
2013-09-12 12:37:00,74.3,51.6,25.22,WNW,291,5.4,5.4,45,0.00,,---,0.00,VWS V14.01,2013-09-12 18:37:00,
2013-09-12 12:39:00,74.3,51.6,25.22,WNW,291,5.4,5.4,45,0.00,,---,0.00,VWS V14.01,2013-09-12 18:39:00,
2013-09-12 12:42:00,74.3,51.6,25.22,WNW,291,5.4,5.4,45,0.00,,---,0.00,VWS V14.01,2013-09-12 18:42:00,
2013-09-12 12:43:00,74.3,51.6,25.22,WNW,291,5.4,5.4,45,0.00,,---,0.00,VWS V14.01,2013-09-12 18:43:00,
2013-09-12 12:44:00,74.3,51.6,25.22,WNW,291,5.4,5.4,45,0.00,,---,0.00,VWS V14.01,2013-09-12 18:44:00,
2013-09-12 12:48:00,74.3,51.6,25.22,WNW,291,5.4,5.4,45,0.00,,---,0.00,VWS V14.01,2013-09-12 18:48:00,
2013-09-12 12:49:00,74.3,51.6,25.22,WNW,291,5.4,5.4,45,0.00,,---,0.00,VWS V14.01,2013-09-12 18:49:00,
2013-09-12 12:55:00,74.3,51.6,25.22,WNW,283,5.8,5.8,45,0.00,,---,0.00,VWS V14.01,2013-09-12 18:55:00,
2013-09-12 12:56:00,74.3,51.6,25.22,WNW,283,5.8,5.8,45,0.00,,---,0.00,VWS V14.01,2013-09-12 18:56:00,
2013-09-12 12:57:00,74.3,51.6,25.22,WNW,283,5.8,5.8,45,0.00,,---,0.00,VWS V14.01,2013-09-12 18:57:00,
2013-09-12 12:58:00,74.3,51.6,25.22,WNW,283,0.0,5.8,45,0.00,,---,0.00,VWS V14.01,2013-09-12 18:58:00,
2013-09-12 12:59:00,74.3,51.6,25.22,WNW,283,0.0,0.0,45,0.00,,---,0.00,VWS V14.01,2013-09-12 18:59:00,
2013-09-12 13:09:00,74.3,51.6,25.22,WSW,238,3.6,3.6,45,0.00,,---,0.00,VWS V14.01,2013-09-12 19:09:00,
2013-09-12 13:10:00,74.3,51.6,25.22,WSW,238,3.6,3.6,45,0.00,,---,0.00,VWS V14.01,2013-09-12 19:10:00,
2013-09-12 13:16:00,74.3,51.6,25.22,South,178,3.6,3.6,45,0.00,,---,0.00,VWS V14.01,2013-09-12 19:16:00,
2013-09-12 13:18:00,74.3,51.6,25.22,South,178,3.6,3.6,45,0.00,,---,0.00,VWS V14.01,2013-09-12 19:18:00,
2013-09-12 13:21:00,74.3,51.6,25.19,West,269,4.0,4.0,45,0.00,,---,0.00,VWS V14.01,2013-09-12 19:21:00,
2013-09-12 13:23:00,74.3,51.6,25.19,West,269,4.0,4.0,45,0.00,,---,0.00,VWS V14.01,2013-09-12 19:23:00,
2013-09-12 13:24:00,74.3,51.6,25.19,West,269,4.0,4.0,45,0.00,,---,0.00,VWS V14.01,2013-09-12 19:24:00,
2013-09-12 13:25:00,74.3,51.6,25.19,West,268,5.8,5.8,45,0.00,,---,0.00,VWS V14.01,2013-09-12 19:25:00,
2013-09-12 13:28:00,68.0,54.1,25.19,SW,229,6.3,6.3,61,0.00,,---,0.00,VWS V14.01,2013-09-12 19:28:00,
2013-09-12 13:30:00,68.0,54.1,25.19,WSW,246,4.9,4.9,61,0.00,,---,0.00,VWS V14.01,2013-09-12 19:30:00,
2013-09-12 13:31:00,68.0,54.1,25.19,WSW,246,4.9,4.9,61,0.00,,---,0.00,VWS V14.01,2013-09-12 19:31:00,
2013-09-12 13:33:00,68.0,54.1,25.19,WSW,246,4.9,4.9,61,0.00,,---,0.00,VWS V14.01,2013-09-12 19:33:00,
2013-09-12 13:35:00,68.0,54.1,25.19,WSW,246,4.9,4.9,61,0.00,,---,0.00,VWS V14.01,2013-09-12 19:35:00,
2013-09-12 13:37:00,68.0,54.1,25.19,WSW,246,4.9,4.9,61,0.00,,---,0.00,VWS V14.01,2013-09-12 19:37:00,
2013-09-12 13:38:00,68.0,54.1,25.19,WSW,246,4.9,4.9,61,0.00,,---,0.00,VWS V14.01,2013-09-12 19:38:00,
2013-09-12 13:39:00,68.0,54.1,25.19,WSW,246,4.9,4.9,61,0.00,,---,0.00,VWS V14.01,2013-09-12 19:39:00,
2013-09-12 13:40:00,68.0,54.1,25.19,WSW,246,4.9,4.9,61,0.00,,---,0.00,VWS V14.01,2013-09-12 19:40:00,
2013-09-12 13:42:00,68.0,54.1,25.19,WSW,246,4.9,4.9,61,0.00,,---,0.00,VWS V14.01,2013-09-12 19:42:00,
2013-09-12 13:43:00,68.0,54.1,25.19,WSW,246,4.9,4.9,61,0.00,,---,0.00,VWS V14.01,2013-09-12 19:43:00,
2013-09-12 13:45:00,68.0,54.1,25.19,WSW,246,4.9,4.9,61,0.00,,---,0.00,VWS V14.01,2013-09-12 19:45:00,
2013-09-12 13:46:00,68.0,54.1,25.19,WSW,246,4.9,4.9,61,0.00,,---,0.00,VWS V14.01,2013-09-12 19:46:00,
2013-09-12 13:47:00,68.0,54.1,25.19,WNW,292,3.6,4.9,61,0.00,,---,0.00,VWS V14.01,2013-09-12 19:47:00,
2013-09-12 13:49:00,68.0,54.1,25.19,West,259,3.1,3.6,61,0.00,,---,0.00,VWS V14.01,2013-09-12 19:49:00,
2013-09-12 13:50:00,68.0,54.1,25.19,West,259,3.1,3.1,61,0.00,,---,0.00,VWS V14.01,2013-09-12 19:50:00,
2013-09-12 13:51:00,68.0,54.1,25.19,West,259,3.1,3.1,61,0.00,,---,0.00,VWS V14.01,2013-09-12 19:51:00,
2013-09-12 13:54:00,68.0,54.1,25.19,West,259,3.1,3.1,61,0.00,,---,0.00,VWS V14.01,2013-09-12 19:54:00,
2013-09-12 13:56:00,68.9,49.0,25.19,West,259,3.1,3.1,49,0.00,,---,0.00,VWS V14.01,2013-09-12 19:56:00,
2013-09-12 13:57:00,68.9,49.0,25.19,West,259,3.1,3.1,49,0.00,,---,0.00,VWS V14.01,2013-09-12 19:57:00,
2013-09-12 13:58:00,68.9,49.0,25.19,West,259,3.1,3.1,49,0.00,,---,0.00,VWS V14.01,2013-09-12 19:58:00,
2013-09-12 13:59:00,68.9,49.0,25.19,West,259,3.1,3.1,49,0.00,,---,0.00,VWS V14.01,2013-09-12 19:59:00,
2013-09-12 14:01:00,68.9,49.0,25.19,West,259,3.1,3.1,49,0.00,,---,0.00,VWS V14.01,2013-09-12 20:01:00,
2013-09-12 14:02:00,68.9,49.0,25.19,West,259,3.1,3.1,49,0.00,,---,0.00,VWS V14.01,2013-09-12 20:02:00,
2013-09-12 14:04:00,68.9,49.0,25.19,West,259,3.1,3.1,49,0.00,,---,0.00,VWS V14.01,2013-09-12 20:04:00,
2013-09-12 14:05:00,68.9,49.0,25.19,West,259,3.1,3.1,49,0.00,,---,0.00,VWS V14.01,2013-09-12 20:05:00,
2013-09-12 14:06:00,68.9,49.0,25.19,West,259,3.1,3.1,49,0.00,,---,0.00,VWS V14.01,2013-09-12 20:06:00,
2013-09-12 14:07:00,68.9,49.0,25.19,West,259,3.1,3.1,49,0.00,,---,0.00,VWS V14.01,2013-09-12 20:07:00,
2013-09-12 14:09:00,68.9,49.0,25.19,West,259,3.1,3.1,49,0.20,,---,0.20,VWS V14.01,2013-09-12 20:09:00,
2013-09-12 14:11:00,68.9,49.0,25.19,West,259,3.1,3.1,49,0.20,,---,0.20,VWS V14.01,2013-09-12 20:11:00,
2013-09-12 14:12:00,68.9,49.0,25.19,West,259,3.1,3.1,49,0.28,,---,0.28,VWS V14.01,2013-09-12 20:12:00,
2013-09-12 14:13:00,68.9,49.0,25.19,West,259,3.1,3.1,49,0.28,,---,0.28,VWS V14.01,2013-09-12 20:13:00,
2013-09-12 14:14:00,68.9,49.0,25.19,West,259,3.1,3.1,49,0.28,,---,0.28,VWS V14.01,2013-09-12 20:14:00,
2013-09-12 14:18:00,66.0,54.3,25.19,WSW,252,2.7,2.7,66,0.28,,---,0.28,VWS V14.01,2013-09-12 20:18:00,
2013-09-12 14:19:00,66.0,54.3,25.19,WSW,258,2.7,2.7,66,0.28,,---,0.28,VWS V14.01,2013-09-12 20:19:00,
2013-09-12 14:22:00,66.0,54.3,25.16,WSW,258,2.7,2.7,66,0.28,,---,0.28,VWS V14.01,2013-09-12 20:22:00,
2013-09-12 14:23:00,66.0,54.3,25.16,WSW,258,2.7,2.7,66,0.28,,---,0.28,VWS V14.01,2013-09-12 20:23:00,
2013-09-12 14:24:00,65.7,56.0,25.16,SW,229,3.1,3.1,71,0.28,,---,0.28,VWS V14.01,2013-09-12 20:24:00,
2013-09-12 14:25:00,65.7,56.0,25.16,SW,229,3.1,3.1,71,0.28,,---,0.28,VWS V14.01,2013-09-12 20:25:00,
2013-09-12 14:28:00,65.7,56.0,25.16,SW,216,4.0,4.0,71,0.28,,---,0.28,VWS V14.01,2013-09-12 20:28:00,
2013-09-12 14:29:00,65.7,56.0,25.16,SW,216,4.0,4.0,71,0.28,,---,0.28,VWS V14.01,2013-09-12 20:29:00,
2013-09-12 14:30:00,65.7,56.0,25.16,SW,216,4.0,4.0,71,0.28,,---,0.28,VWS V14.01,2013-09-12 20:30:00,
2013-09-12 14:31:00,65.7,56.0,25.16,SW,216,4.0,4.0,71,0.28,,---,0.28,VWS V14.01,2013-09-12 20:31:00,
2013-09-12 14:35:00,65.7,56.0,25.16,SW,216,4.0,4.0,71,0.28,,---,0.28,VWS V14.01,2013-09-12 20:35:00,
2013-09-12 14:36:00,65.7,56.0,25.16,SW,216,4.0,4.0,71,0.28,,---,0.28,VWS V14.01,2013-09-12 20:36:00,
2013-09-12 14:37:00,66.0,56.7,25.16,SW,216,4.0,4.0,72,0.28,,---,0.28,VWS V14.01,2013-09-12 20:37:00,
2013-09-12 14:38:00,66.0,56.7,25.16,SW,216,4.0,4.0,72,0.31,,---,0.31,VWS V14.01,2013-09-12 20:38:00,
2013-09-12 14:41:00,66.0,56.7,25.16,SSW,209,3.1,3.1,72,0.31,,---,0.31,VWS V14.01,2013-09-12 20:41:00,
2013-09-12 14:44:00,66.0,56.7,25.16,SSW,209,3.1,3.1,72,0.31,,---,0.31,VWS V14.01,2013-09-12 20:44:00,
2013-09-12 14:45:00,66.0,56.7,25.16,SW,234,0.0,3.1,72,0.31,,---,0.31,VWS V14.01,2013-09-12 20:45:00,
2013-09-12 14:46:00,66.0,56.7,25.16,SW,234,0.0,0.0,72,0.31,,---,0.31,VWS V14.01,2013-09-12 20:46:00,
2013-09-12 14:47:00,66.0,56.7,25.16,SW,234,0.0,0.0,72,0.31,,---,0.31,VWS V14.01,2013-09-12 20:47:00,
2013-09-12 14:50:00,66.0,56.7,25.16,SW,234,0.0,0.0,72,0.31,,---,0.31,VWS V14.01,2013-09-12 20:50:00,
2013-09-12 14:52:00,66.0,56.7,25.16,NNW,341,2.7,2.7,72,0.31,,---,0.31,VWS V14.01,2013-09-12 20:52:00,
2013-09-12 14:53:00,66.0,56.7,25.16,NNW,341,2.7,2.7,72,0.31,,---,0.31,VWS V14.01,2013-09-12 20:53:00,
2013-09-12 14:55:00,66.0,56.7,25.16,NNW,348,0.0,0.0,72,0.31,,---,0.31,VWS V14.01,2013-09-12 20:55:00,
2013-09-12 14:58:00,66.0,56.7,25.16,NNE,18,0.0,0.0,72,0.31,,---,0.31,VWS V14.01,2013-09-12 20:58:00,
2013-09-12 14:59:00,66.0,56.7,25.16,East,90,3.1,3.1,72,0.31,,---,0.31,VWS V14.01,2013-09-12 20:59:00,
2013-09-12 15:01:00,68.7,59.7,25.16,East,90,3.1,3.1,73,0.31,,---,0.31,VWS V14.01,2013-09-12 21:01:00,
2013-09-12 15:04:00,68.7,59.7,25.16,ENE,64,3.1,3.1,73,0.31,,---,0.31,VWS V14.01,2013-09-12 21:04:00,
2013-09-12 15:05:00,68.7,59.7,25.16,ENE,64,3.1,3.1,73,0.31,,---,0.31,VWS V14.01,2013-09-12 21:05:00,
2013-09-12 15:06:00,68.7,59.7,25.16,North,357,3.6,3.6,73,0.31,,---,0.31,VWS V14.01,2013-09-12 21:06:00,
2013-09-12 15:07:00,68.7,59.7,25.16,North,357,3.1,3.6,73,0.31,,---,0.31,VWS V14.01,2013-09-12 21:07:00,
2013-09-12 15:09:00,68.7,59.7,25.16,North,357,3.1,3.1,73,0.31,,---,0.31,VWS V14.01,2013-09-12 21:09:00,
2013-09-12 15:12:00,69.6,59.0,25.16,North,357,3.1,3.1,69,0.12,,---,0.31,VWS V14.01,2013-09-12 21:12:00,
2013-09-12 15:13:00,69.6,59.0,25.16,North,357,3.1,3.1,69,0.04,,---,0.31,VWS V14.01,2013-09-12 21:13:00,
2013-09-12 15:16:00,69.6,59.0,25.16,North,357,3.1,3.1,69,0.04,,---,0.31,VWS V14.01,2013-09-12 21:16:00,
2013-09-12 15:17:00,69.6,59.0,25.16,North,357,3.1,3.1,69,0.04,,---,0.31,VWS V14.01,2013-09-12 21:17:00,
2013-09-12 15:20:00,69.6,59.0,25.16,North,357,3.1,3.1,69,0.04,,---,0.31,VWS V14.01,2013-09-12 21:20:00,
2013-09-12 15:22:00,69.6,59.0,25.16,North,357,3.1,3.1,69,0.04,,---,0.31,VWS V14.01,2013-09-12 21:22:00,
2013-09-12 15:23:00,69.6,59.0,25.16,North,357,3.1,3.1,69,0.04,,---,0.31,VWS V14.01,2013-09-12 21:23:00,
2013-09-12 15:24:00,69.6,59.0,25.16,North,357,3.1,3.1,69,0.04,,---,0.31,VWS V14.01,2013-09-12 21:24:00,
2013-09-12 15:27:00,69.6,59.0,25.16,North,8,0.0,0.0,69,0.04,,---,0.31,VWS V14.01,2013-09-12 21:27:00,
2013-09-12 15:28:00,69.6,59.0,25.16,North,8,0.0,0.0,69,0.04,,---,0.31,VWS V14.01,2013-09-12 21:28:00,
2013-09-12 15:29:00,69.6,59.0,25.16,North,8,0.0,0.0,69,0.04,,---,0.31,VWS V14.01,2013-09-12 21:29:00,
2013-09-12 15:31:00,69.6,59.0,25.16,North,8,0.0,0.0,69,0.04,,---,0.31,VWS V14.01,2013-09-12 21:31:00,
2013-09-12 15:32:00,69.6,59.0,25.16,North,8,0.0,0.0,69,0.04,,---,0.31,VWS V14.01,2013-09-12 21:32:00,
2013-09-12 15:33:00,69.6,59.0,25.16,North,8,0.0,0.0,69,0.04,,---,0.31,VWS V14.01,2013-09-12 21:33:00,
2013-09-12 15:34:00,69.6,59.0,25.16,NNW,339,2.2,2.2,69,0.04,,---,0.31,VWS V14.01,2013-09-12 21:34:00,
2013-09-12 15:35:00,69.6,59.0,25.16,NNW,339,2.2,2.2,69,0.04,,---,0.31,VWS V14.01,2013-09-12 21:35:00,
2013-09-12 15:37:00,69.6,59.0,25.16,East,89,0.0,2.2,69,0.04,,---,0.31,VWS V14.01,2013-09-12 21:37:00,
2013-09-12 15:38:00,69.6,59.0,25.16,East,89,2.2,2.2,69,0.04,,---,0.31,VWS V14.01,2013-09-12 21:38:00,
2013-09-12 15:40:00,69.6,59.0,25.16,East,89,2.2,2.2,69,0.00,,---,0.31,VWS V14.01,2013-09-12 21:40:00,
2013-09-12 15:41:00,69.6,59.0,25.16,NE,51,0.0,2.2,69,0.00,,---,0.31,VWS V14.01,2013-09-12 21:41:00,
2013-09-12 15:42:00,69.6,59.0,25.16,NE,51,0.0,0.0,69,0.00,,---,0.31,VWS V14.01,2013-09-12 21:42:00,
2013-09-12 15:44:00,69.6,59.0,25.16,ENE,57,2.2,2.2,69,0.00,,---,0.31,VWS V14.01,2013-09-12 21:44:00,
2013-09-12 15:45:00,69.6,59.0,25.16,ENE,57,2.2,2.2,69,0.00,,---,0.31,VWS V14.01,2013-09-12 21:45:00,
2013-09-12 15:46:00,69.6,59.0,25.16,ENE,57,2.2,2.2,69,0.00,,---,0.31,VWS V14.01,2013-09-12 21:46:00,
2013-09-12 15:48:00,69.6,59.0,25.16,ENE,57,2.2,2.2,69,0.00,,---,0.31,VWS V14.01,2013-09-12 21:48:00,
2013-09-12 15:49:00,69.6,59.0,25.16,ENE,57,2.2,2.2,69,0.00,,---,0.31,VWS V14.01,2013-09-12 21:49:00,
2013-09-12 15:50:00,69.6,59.0,25.16,ENE,57,2.2,2.2,69,0.00,,---,0.31,VWS V14.01,2013-09-12 21:50:00,
2013-09-12 15:52:00,69.6,59.0,25.16,ESE,108,2.7,2.7,69,0.00,,---,0.31,VWS V14.01,2013-09-12 21:52:00,
2013-09-12 15:54:00,69.6,59.0,25.16,ESE,108,2.7,2.7,69,0.00,,---,0.31,VWS V14.01,2013-09-12 21:54:00,
2013-09-12 15:55:00,69.6,59.0,25.16,ESE,108,2.7,2.7,69,0.00,,---,0.31,VWS V14.01,2013-09-12 21:55:00,
2013-09-12 15:56:00,69.6,59.0,25.16,ESE,108,2.7,2.7,69,0.00,,---,0.31,VWS V14.01,2013-09-12 21:56:00,
2013-09-12 15:57:00,69.6,59.0,25.16,ESE,108,2.7,2.7,69,0.00,,---,0.31,VWS V14.01,2013-09-12 21:57:00,
2013-09-12 16:01:00,69.6,59.0,25.16,ESE,108,2.7,2.7,69,0.00,,---,0.31,VWS V14.01,2013-09-12 22:01:00,
2013-09-12 16:02:00,69.6,59.0,25.16,East,100,2.2,2.7,69,0.00,,---,0.31,VWS V14.01,2013-09-12 22:02:00,
2013-09-12 16:03:00,69.6,59.0,25.16,East,100,2.2,2.2,69,0.00,,---,0.31,VWS V14.01,2013-09-12 22:03:00,
2013-09-12 16:05:00,69.6,59.0,25.16,East,100,2.2,2.2,69,0.00,,---,0.31,VWS V14.01,2013-09-12 22:05:00,
2013-09-12 16:07:00,69.6,59.0,25.16,East,100,2.2,2.2,69,0.00,,---,0.31,VWS V14.01,2013-09-12 22:07:00,
2013-09-12 16:08:00,69.6,59.0,25.16,East,100,2.2,2.2,69,0.00,,---,0.31,VWS V14.01,2013-09-12 22:08:00,
2013-09-12 16:10:00,69.6,59.0,25.16,East,100,2.2,2.2,69,0.00,,---,0.31,VWS V14.01,2013-09-12 22:10:00,
2013-09-12 16:12:00,69.6,59.0,25.16,East,100,2.2,2.2,69,0.00,,---,0.31,VWS V14.01,2013-09-12 22:12:00,
2013-09-12 16:14:00,69.6,59.0,25.16,East,100,2.2,2.2,69,0.00,,---,0.31,VWS V14.01,2013-09-12 22:14:00,
2013-09-12 16:15:00,69.6,59.0,25.16,East,100,2.2,2.2,69,0.00,,---,0.31,VWS V14.01,2013-09-12 22:15:00,
2013-09-12 16:19:00,69.6,59.0,25.16,East,100,2.2,2.2,69,0.00,,---,0.31,VWS V14.01,2013-09-12 22:19:00,
2013-09-12 16:20:00,69.6,59.0,25.16,East,100,2.2,2.2,69,0.00,,---,0.31,VWS V14.01,2013-09-12 22:20:00,
2013-09-12 16:21:00,69.6,59.0,25.16,East,100,2.2,2.2,69,0.00,,---,0.31,VWS V14.01,2013-09-12 22:21:00,
2013-09-12 16:25:00,69.6,59.0,25.16,East,100,2.2,2.2,69,0.00,,---,0.31,VWS V14.01,2013-09-12 22:25:00,
2013-09-12 16:27:00,69.6,59.0,25.16,East,100,2.2,2.2,69,0.00,,---,0.31,VWS V14.01,2013-09-12 22:27:00,
2013-09-12 16:28:00,69.6,59.0,25.16,East,100,2.2,2.2,69,0.00,,---,0.31,VWS V14.01,2013-09-12 22:28:00,
2013-09-12 16:29:00,69.6,59.0,25.16,East,100,2.2,2.2,69,0.00,,---,0.31,VWS V14.01,2013-09-12 22:29:00,
2013-09-12 16:33:00,69.6,59.0,25.16,East,100,2.2,2.2,69,0.00,,---,0.31,VWS V14.01,2013-09-12 22:33:00,
2013-09-12 16:35:00,69.6,59.0,25.16,East,100,2.2,2.2,69,0.00,,---,0.31,VWS V14.01,2013-09-12 22:35:00,
2013-09-12 16:36:00,69.6,59.0,25.16,East,100,2.2,2.2,69,0.00,,---,0.31,VWS V14.01,2013-09-12 22:36:00,
2013-09-12 16:38:00,69.6,59.0,25.16,East,100,2.2,2.2,69,0.00,,---,0.31,VWS V14.01,2013-09-12 22:38:00,
2013-09-12 16:40:00,69.6,59.0,25.16,East,100,2.2,2.2,69,0.00,,---,0.31,VWS V14.01,2013-09-12 22:40:00,
2013-09-12 16:41:00,69.6,59.0,25.16,East,100,2.2,2.2,69,0.00,,---,0.31,VWS V14.01,2013-09-12 22:41:00,
2013-09-12 16:43:00,69.6,59.0,25.16,East,100,2.2,2.2,69,0.00,,---,0.31,VWS V14.01,2013-09-12 22:43:00,
2013-09-12 16:44:00,69.6,59.0,25.16,East,100,2.2,2.2,69,0.00,,---,0.31,VWS V14.01,2013-09-12 22:44:00,
2013-09-12 16:46:00,69.6,59.0,25.16,East,100,2.2,2.2,69,0.00,,---,0.31,VWS V14.01,2013-09-12 22:46:00,
2013-09-12 16:47:00,69.6,59.0,25.16,East,100,2.2,2.2,69,0.00,,---,0.31,VWS V14.01,2013-09-12 22:47:00,
2013-09-12 16:48:00,69.6,59.0,25.16,East,100,2.2,2.2,69,0.00,,---,0.31,VWS V14.01,2013-09-12 22:48:00,
2013-09-12 16:49:00,69.6,59.0,25.16,East,100,2.2,2.2,69,0.00,,---,0.31,VWS V14.01,2013-09-12 22:49:00,
2013-09-12 16:50:00,69.6,59.0,25.16,East,100,2.2,2.2,69,0.00,,---,0.31,VWS V14.01,2013-09-12 22:50:00,
2013-09-12 16:51:00,69.6,59.0,25.16,NW,322,4.0,4.0,69,0.00,,---,0.31,VWS V14.01,2013-09-12 22:51:00,
2013-09-12 16:52:00,69.6,59.0,25.16,NW,322,4.0,4.0,69,0.00,,---,0.31,VWS V14.01,2013-09-12 22:52:00,
2013-09-12 16:53:00,69.6,59.0,25.16,NW,322,4.0,4.0,69,0.00,,---,0.31,VWS V14.01,2013-09-12 22:53:00,
2013-09-12 16:54:00,69.6,59.0,25.16,NW,322,4.0,4.0,69,0.00,,---,0.31,VWS V14.01,2013-09-12 22:54:00,
2013-09-12 16:55:00,69.6,59.0,25.16,NW,322,4.0,4.0,69,0.00,,---,0.31,VWS V14.01,2013-09-12 22:55:00,
2013-09-12 17:05:00,69.6,59.0,25.16,NNW,333,2.7,2.7,69,0.00,,---,0.31,VWS V14.01,2013-09-12 23:05:00,
2013-09-12 17:06:00,69.6,59.0,25.19,NNW,332,2.2,2.2,69,0.00,,---,0.31,VWS V14.01,2013-09-12 23:06:00,
2013-09-12 17:11:00,69.6,59.0,25.19,NNW,337,0.0,0.0,69,0.00,,---,0.31,VWS V14.01,2013-09-12 23:11:00,
2013-09-12 17:12:00,69.6,59.0,25.19,NNW,337,0.0,0.0,69,0.00,,---,0.31,VWS V14.01,2013-09-12 23:12:00,
2013-09-12 17:13:00,69.6,59.0,25.19,NNW,337,0.0,0.0,69,0.00,,---,0.31,VWS V14.01,2013-09-12 23:13:00,
2013-09-12 17:14:00,69.6,59.0,25.19,NNW,337,0.0,0.0,69,0.00,,---,0.31,VWS V14.01,2013-09-12 23:14:00,
2013-09-12 17:16:00,69.6,59.0,25.19,NNW,337,0.0,0.0,69,0.00,,---,0.31,VWS V14.01,2013-09-12 23:16:00,
2013-09-12 17:18:00,69.6,59.0,25.19,NNW,337,0.0,0.0,69,0.00,,---,0.31,VWS V14.01,2013-09-12 23:18:00,
2013-09-12 17:19:00,69.6,59.0,25.19,NNW,337,0.0,0.0,69,0.00,,---,0.31,VWS V14.01,2013-09-12 23:19:00,
2013-09-12 17:20:00,69.6,59.0,25.19,NNW,337,0.0,0.0,69,0.00,,---,0.31,VWS V14.01,2013-09-12 23:20:00,
2013-09-12 17:22:00,69.6,59.0,25.19,NNW,337,0.0,0.0,69,0.00,,---,0.31,VWS V14.01,2013-09-12 23:22:00,
2013-09-12 17:23:00,69.6,59.0,25.19,NNW,337,0.0,0.0,69,0.00,,---,0.31,VWS V14.01,2013-09-12 23:23:00,
2013-09-12 17:24:00,69.6,59.0,25.19,NNW,335,3.1,3.1,69,0.00,,---,0.31,VWS V14.01,2013-09-12 23:24:00,
2013-09-12 17:26:00,69.6,59.0,25.19,NNW,335,0.0,3.1,69,0.00,,---,0.31,VWS V14.01,2013-09-12 23:26:00,
2013-09-12 17:27:00,69.6,59.0,25.19,NNW,335,0.0,0.0,69,0.00,,---,0.31,VWS V14.01,2013-09-12 23:27:00,
2013-09-12 17:28:00,69.6,59.0,25.19,NNW,335,0.0,0.0,69,0.00,,---,0.31,VWS V14.01,2013-09-12 23:28:00,
2013-09-12 17:31:00,69.6,59.0,25.19,NNW,335,0.0,0.0,69,0.00,,---,0.31,VWS V14.01,2013-09-12 23:31:00,
2013-09-12 17:32:00,69.6,59.0,25.19,NNW,335,0.0,0.0,69,0.00,,---,0.31,VWS V14.01,2013-09-12 23:32:00,
2013-09-12 17:33:00,69.6,59.0,25.19,NNW,335,0.0,0.0,69,0.00,,---,0.31,VWS V14.01,2013-09-12 23:33:00,
2013-09-12 17:36:00,69.6,59.0,25.19,NNW,335,0.0,0.0,69,0.00,,---,0.31,VWS V14.01,2013-09-12 23:36:00,
2013-09-12 17:37:00,69.6,59.0,25.19,NNW,335,0.0,0.0,69,0.00,,---,0.31,VWS V14.01,2013-09-12 23:37:00,
2013-09-12 17:40:00,69.6,59.0,25.19,NNW,335,0.0,0.0,69,0.00,,---,0.31,VWS V14.01,2013-09-12 23:40:00,
2013-09-12 17:42:00,69.6,59.0,25.19,NNW,335,0.0,0.0,69,0.00,,---,0.31,VWS V14.01,2013-09-12 23:42:00,
2013-09-12 17:46:00,69.6,59.0,25.19,NNW,335,0.0,0.0,69,0.00,,---,0.31,VWS V14.01,2013-09-12 23:46:00,
2013-09-12 17:47:00,69.6,59.0,25.19,NNW,335,0.0,0.0,69,0.00,,---,0.31,VWS V14.01,2013-09-12 23:47:00,
2013-09-12 17:50:00,69.6,59.0,25.19,NNW,335,0.0,0.0,69,0.00,,---,0.31,VWS V14.01,2013-09-12 23:50:00,
2013-09-12 17:52:00,69.6,59.0,25.19,NNW,335,0.0,0.0,69,0.00,,---,0.31,VWS V14.01,2013-09-12 23:52:00,
2013-09-12 17:53:00,69.6,59.0,25.19,NNW,335,0.0,0.0,69,0.00,,---,0.31,VWS V14.01,2013-09-12 23:53:00,
2013-09-12 17:54:00,64.4,62.3,25.19,NNW,335,0.0,0.0,93,0.00,,---,0.31,VWS V14.01,2013-09-12 23:54:00,
2013-09-12 17:56:00,64.4,62.3,25.19,NNW,335,0.0,0.0,93,0.00,,---,0.31,VWS V14.01,2013-09-12 23:56:00,
2013-09-12 17:57:00,64.4,62.3,25.19,NNW,335,0.0,0.0,93,0.00,,---,0.31,VWS V14.01,2013-09-12 23:57:00,
2013-09-12 18:00:00,64.4,62.3,25.19,NNW,335,0.0,0.0,93,0.00,,---,0.31,VWS V14.01,2013-09-13 00:00:00,
2013-09-12 18:01:00,64.4,62.3,25.19,NNW,335,0.0,0.0,93,0.00,,---,0.31,VWS V14.01,2013-09-13 00:01:00,
2013-09-12 18:03:00,64.4,62.3,25.19,NNW,335,0.0,0.0,93,0.00,,---,0.31,VWS V14.01,2013-09-13 00:03:00,
2013-09-12 18:04:00,64.4,62.3,25.19,NNW,335,0.0,0.0,93,0.00,,---,0.31,VWS V14.01,2013-09-13 00:04:00,
2013-09-12 18:05:00,64.4,62.3,25.19,NNW,335,0.0,0.0,93,0.00,,---,0.31,VWS V14.01,2013-09-13 00:05:00,
2013-09-12 18:06:00,64.4,62.3,25.19,NNW,335,0.0,0.0,93,0.00,,---,0.31,VWS V14.01,2013-09-13 00:06:00,
2013-09-12 18:07:00,64.4,62.3,25.19,NNW,335,0.0,0.0,93,0.00,,---,0.31,VWS V14.01,2013-09-13 00:07:00,
2013-09-12 18:08:00,64.4,62.3,25.19,NNW,335,0.0,0.0,93,0.00,,---,0.31,VWS V14.01,2013-09-13 00:08:00,
2013-09-12 18:12:00,64.2,63.1,25.19,NNW,335,0.0,0.0,96,0.00,,---,0.31,VWS V14.01,2013-09-13 00:12:00,
2013-09-12 18:13:00,64.2,63.1,25.19,NNW,335,0.0,0.0,96,0.00,,---,0.31,VWS V14.01,2013-09-13 00:13:00,
2013-09-12 18:14:00,64.2,63.1,25.19,NNW,335,0.0,0.0,96,0.00,,---,0.31,VWS V14.01,2013-09-13 00:14:00,
2013-09-12 18:16:00,64.2,63.1,25.19,NNW,335,0.0,0.0,96,0.00,,---,0.31,VWS V14.01,2013-09-13 00:16:00,
2013-09-12 18:17:00,64.2,63.1,25.19,NNW,335,0.0,0.0,96,0.00,,---,0.31,VWS V14.01,2013-09-13 00:17:00,
2013-09-12 18:18:00,64.2,63.1,25.19,NNW,335,2.7,2.7,96,0.00,,---,0.31,VWS V14.01,2013-09-13 00:18:00,
2013-09-12 18:19:00,64.2,63.1,25.19,NNW,335,2.7,2.7,96,0.00,,---,0.31,VWS V14.01,2013-09-13 00:19:00,
2013-09-12 18:23:00,64.2,63.1,25.19,NNW,335,0.0,0.0,96,0.00,,---,0.31,VWS V14.01,2013-09-13 00:23:00,
2013-09-12 18:24:00,64.2,63.1,25.19,NNW,335,0.0,0.0,96,0.00,,---,0.31,VWS V14.01,2013-09-13 00:24:00,
2013-09-12 18:25:00,64.2,63.1,25.19,NNW,336,0.0,0.0,96,0.00,,---,0.31,VWS V14.01,2013-09-13 00:25:00,
2013-09-12 18:27:00,64.2,63.1,25.19,NNW,336,0.0,0.0,96,0.00,,---,0.31,VWS V14.01,2013-09-13 00:27:00,
2013-09-12 18:29:00,64.2,63.1,25.19,East,101,2.2,2.2,96,0.00,,---,0.31,VWS V14.01,2013-09-13 00:29:00,
2013-09-12 18:31:00,64.2,63.1,25.19,ESE,104,0.0,2.2,96,0.00,,---,0.31,VWS V14.01,2013-09-13 00:31:00,
2013-09-12 18:34:00,64.2,63.1,25.19,ESE,104,0.0,0.0,96,0.00,,---,0.31,VWS V14.01,2013-09-13 00:34:00,
2013-09-12 18:35:00,64.2,63.1,25.19,ESE,104,0.0,0.0,96,0.00,,---,0.31,VWS V14.01,2013-09-13 00:35:00,
2013-09-12 18:36:00,64.2,63.1,25.19,ESE,104,0.0,0.0,96,0.00,,---,0.31,VWS V14.01,2013-09-13 00:36:00,
2013-09-12 18:40:00,64.2,63.1,25.19,East,101,0.0,0.0,96,0.00,,---,0.31,VWS V14.01,2013-09-13 00:40:00,
2013-09-12 18:42:00,64.2,63.1,25.19,East,96,0.0,0.0,96,0.00,,---,0.31,VWS V14.01,2013-09-13 00:42:00,
2013-09-12 18:44:00,64.2,63.1,25.19,East,96,0.0,0.0,96,0.00,,---,0.31,VWS V14.01,2013-09-13 00:44:00,
2013-09-12 18:45:00,64.2,63.1,25.19,East,96,0.0,0.0,96,0.00,,---,0.31,VWS V14.01,2013-09-13 00:45:00,
2013-09-12 18:48:00,64.2,63.1,25.19,East,96,0.0,0.0,96,0.00,,---,0.31,VWS V14.01,2013-09-13 00:48:00,
2013-09-12 18:49:00,64.2,63.1,25.19,East,96,0.0,0.0,96,0.00,,---,0.31,VWS V14.01,2013-09-13 00:49:00,
2013-09-12 18:52:00,64.2,63.1,25.22,East,96,0.0,0.0,96,0.00,,---,0.31,VWS V14.01,2013-09-13 00:52:00,
2013-09-12 18:53:00,64.2,63.1,25.22,East,96,0.0,0.0,96,0.00,,---,0.31,VWS V14.01,2013-09-13 00:53:00,
2013-09-12 18:54:00,64.2,63.1,25.22,East,96,0.0,0.0,96,0.00,,---,0.31,VWS V14.01,2013-09-13 00:54:00,
2013-09-12 18:57:00,63.7,62.8,25.22,East,96,0.0,0.0,97,0.00,,---,0.31,VWS V14.01,2013-09-13 00:57:00,
2013-09-12 18:58:00,63.7,62.8,25.22,East,96,0.0,0.0,97,0.00,,---,0.31,VWS V14.01,2013-09-13 00:58:00,
2013-09-12 18:59:00,63.7,62.8,25.22,East,96,0.0,0.0,97,0.00,,---,0.31,VWS V14.01,2013-09-13 00:59:00,
2013-09-12 19:03:00,63.7,62.8,25.22,East,96,0.0,0.0,97,0.00,,---,0.31,VWS V14.01,2013-09-13 01:03:00,
2013-09-12 19:04:00,63.7,62.8,25.19,East,96,0.0,0.0,97,0.00,,---,0.31,VWS V14.01,2013-09-13 01:04:00,
2013-09-12 19:06:00,63.7,62.8,25.19,East,96,0.0,0.0,97,0.00,,---,0.31,VWS V14.01,2013-09-13 01:06:00,
2013-09-12 19:07:00,63.7,62.8,25.19,East,96,0.0,0.0,97,0.00,,---,0.31,VWS V14.01,2013-09-13 01:07:00,
2013-09-12 19:09:00,63.7,62.8,25.19,East,96,0.0,0.0,97,0.00,,---,0.31,VWS V14.01,2013-09-13 01:09:00,
2013-09-12 19:11:00,63.7,62.8,25.19,East,96,0.0,0.0,97,0.00,,---,0.31,VWS V14.01,2013-09-13 01:11:00,
2013-09-12 19:12:00,63.7,62.8,25.19,East,96,0.0,0.0,97,0.00,,---,0.31,VWS V14.01,2013-09-13 01:12:00,
2013-09-12 19:13:00,63.7,62.8,25.19,East,96,0.0,0.0,97,0.00,,---,0.31,VWS V14.01,2013-09-13 01:13:00,
2013-09-12 19:14:00,63.7,62.8,25.19,East,96,0.0,0.0,97,0.00,,---,0.31,VWS V14.01,2013-09-13 01:14:00,
2013-09-12 19:17:00,63.7,62.8,25.19,East,96,0.0,0.0,97,0.00,,---,0.31,VWS V14.01,2013-09-13 01:17:00,
2013-09-12 19:18:00,63.5,62.6,25.19,East,96,0.0,0.0,97,0.00,,---,0.31,VWS V14.01,2013-09-13 01:18:00,
2013-09-12 19:19:00,63.5,62.6,25.19,East,96,0.0,0.0,97,0.00,,---,0.31,VWS V14.01,2013-09-13 01:19:00,
2013-09-12 19:20:00,63.5,62.6,25.19,East,96,0.0,0.0,97,0.00,,---,0.31,VWS V14.01,2013-09-13 01:20:00,
2013-09-12 19:23:00,63.5,62.6,25.19,East,96,0.0,0.0,97,0.00,,---,0.31,VWS V14.01,2013-09-13 01:23:00,
2013-09-12 19:24:00,63.5,62.6,25.19,East,96,0.0,0.0,97,0.00,,---,0.31,VWS V14.01,2013-09-13 01:24:00,
2013-09-12 19:26:00,63.5,62.6,25.19,East,96,0.0,0.0,97,0.00,,---,0.31,VWS V14.01,2013-09-13 01:26:00,
2013-09-12 19:29:00,63.7,62.8,25.19,East,96,0.0,0.0,97,0.00,,---,0.31,VWS V14.01,2013-09-13 01:29:00,
2013-09-12 19:30:00,63.7,62.8,25.19,East,96,0.0,0.0,97,0.00,,---,0.31,VWS V14.01,2013-09-13 01:30:00,
2013-09-12 19:33:00,63.7,62.8,25.19,East,96,0.0,0.0,97,0.00,,---,0.31,VWS V14.01,2013-09-13 01:33:00,
2013-09-12 19:34:00,63.7,63.1,25.19,East,96,0.0,0.0,98,0.00,,---,0.31,VWS V14.01,2013-09-13 01:34:00,
2013-09-12 19:35:00,63.7,63.1,25.22,East,96,0.0,0.0,98,0.00,,---,0.31,VWS V14.01,2013-09-13 01:35:00,
2013-09-12 19:36:00,63.7,63.1,25.22,East,96,0.0,0.0,98,0.00,,---,0.31,VWS V14.01,2013-09-13 01:36:00,
2013-09-12 19:39:00,63.7,63.1,25.22,East,96,0.0,0.0,98,0.00,,---,0.31,VWS V14.01,2013-09-13 01:39:00,
2013-09-12 19:40:00,63.7,63.1,25.22,East,96,0.0,0.0,98,0.00,,---,0.31,VWS V14.01,2013-09-13 01:40:00,
2013-09-12 19:41:00,63.5,62.6,25.22,East,96,0.0,0.0,97,0.00,,---,0.31,VWS V14.01,2013-09-13 01:41:00,
2013-09-12 19:43:00,63.5,62.6,25.22,East,96,0.0,0.0,97,0.00,,---,0.31,VWS V14.01,2013-09-13 01:43:00,
2013-09-12 19:46:00,63.5,62.6,25.22,East,96,0.0,0.0,97,0.00,,---,0.31,VWS V14.01,2013-09-13 01:46:00,
2013-09-12 19:49:00,63.5,62.6,25.22,East,96,0.0,0.0,97,0.00,,---,0.31,VWS V14.01,2013-09-13 01:49:00,
2013-09-12 19:50:00,63.5,62.6,25.22,East,96,0.0,0.0,97,0.00,,---,0.31,VWS V14.01,2013-09-13 01:50:00,
2013-09-12 19:53:00,63.1,62.3,25.22,East,96,0.0,0.0,97,0.00,,---,0.31,VWS V14.01,2013-09-13 01:53:00,
2013-09-12 19:55:00,63.0,62.1,25.22,East,96,0.0,0.0,97,0.00,,---,0.31,VWS V14.01,2013-09-13 01:55:00,
2013-09-12 19:57:00,63.0,62.1,25.22,East,96,0.0,0.0,97,0.00,,---,0.31,VWS V14.01,2013-09-13 01:57:00,
2013-09-12 19:59:00,63.0,62.1,25.22,East,96,0.0,0.0,97,0.00,,---,0.31,VWS V14.01,2013-09-13 01:59:00,
2013-09-12 20:00:00,63.0,62.1,25.22,East,96,0.0,0.0,97,0.00,,---,0.31,VWS V14.01,2013-09-13 02:00:00,
2013-09-12 20:03:00,63.0,62.1,25.22,East,96,0.0,0.0,97,0.00,,---,0.31,VWS V14.01,2013-09-13 02:03:00,
2013-09-12 20:06:00,62.8,61.9,25.22,SSE,154,0.0,0.0,97,0.00,,---,0.31,VWS V14.01,2013-09-13 02:06:00,
2013-09-12 20:07:00,62.8,61.9,25.22,SSE,154,0.0,0.0,97,0.00,,---,0.31,VWS V14.01,2013-09-13 02:07:00,
2013-09-12 20:08:00,62.8,61.9,25.22,SSE,154,0.0,0.0,97,0.00,,---,0.31,VWS V14.01,2013-09-13 02:08:00,
2013-09-12 20:09:00,62.8,61.9,25.22,SSE,154,0.0,0.0,97,0.00,,---,0.31,VWS V14.01,2013-09-13 02:09:00,
2013-09-12 20:10:00,62.6,61.7,25.22,SSE,154,0.0,0.0,97,0.00,,---,0.31,VWS V14.01,2013-09-13 02:10:00,
2013-09-12 20:11:00,62.6,61.7,25.22,SSE,154,0.0,0.0,97,0.00,,---,0.31,VWS V14.01,2013-09-13 02:11:00,
2013-09-12 20:15:00,62.6,61.7,25.22,SSE,154,0.0,0.0,97,0.00,,---,0.31,VWS V14.01,2013-09-13 02:15:00,
2013-09-12 20:18:00,62.6,62.0,25.22,SSE,155,0.0,0.0,98,0.00,,---,0.31,VWS V14.01,2013-09-13 02:18:00,
2013-09-12 20:19:00,62.6,62.0,25.22,SSE,155,0.0,0.0,98,0.00,,---,0.31,VWS V14.01,2013-09-13 02:19:00,
2013-09-12 20:22:00,62.6,62.0,25.22,SSE,155,0.0,0.0,98,0.00,,---,0.31,VWS V14.01,2013-09-13 02:22:00,
2013-09-12 20:23:00,62.6,62.0,25.22,SSE,155,0.0,0.0,98,0.00,,---,0.31,VWS V14.01,2013-09-13 02:23:00,
2013-09-12 20:26:00,62.6,62.0,25.22,SSE,155,0.0,0.0,98,0.00,,---,0.31,VWS V14.01,2013-09-13 02:26:00,
2013-09-12 20:27:00,62.6,62.0,25.22,SSE,155,0.0,0.0,98,0.00,,---,0.31,VWS V14.01,2013-09-13 02:27:00,
2013-09-12 20:28:00,62.6,62.0,25.22,SSE,155,0.0,0.0,98,0.00,,---,0.31,VWS V14.01,2013-09-13 02:28:00,
2013-09-12 20:29:00,62.6,62.0,25.22,East,90,0.0,0.0,98,0.00,,---,0.31,VWS V14.01,2013-09-13 02:29:00,
2013-09-12 20:33:00,62.8,62.2,25.22,East,87,0.0,0.0,98,0.00,,---,0.31,VWS V14.01,2013-09-13 02:33:00,
2013-09-12 20:35:00,62.8,62.2,25.22,East,87,0.0,0.0,98,0.00,,---,0.31,VWS V14.01,2013-09-13 02:35:00,
2013-09-12 20:37:00,62.8,62.2,25.22,East,87,0.0,0.0,98,0.00,,---,0.31,VWS V14.01,2013-09-13 02:37:00,
2013-09-12 20:40:00,62.8,62.2,25.22,East,87,0.0,0.0,98,0.00,,---,0.31,VWS V14.01,2013-09-13 02:40:00,
2013-09-12 20:41:00,62.8,62.2,25.22,East,87,0.0,0.0,98,0.00,,---,0.31,VWS V14.01,2013-09-13 02:41:00,
2013-09-12 20:42:00,62.8,62.2,25.22,East,87,0.0,0.0,98,0.00,,---,0.31,VWS V14.01,2013-09-13 02:42:00,
2013-09-12 20:44:00,62.8,62.2,25.22,East,87,0.0,0.0,98,0.00,,---,0.31,VWS V14.01,2013-09-13 02:44:00,
2013-09-12 20:47:00,62.8,62.2,25.22,SSW,197,0.0,0.0,98,0.00,,---,0.31,VWS V14.01,2013-09-13 02:47:00,
2013-09-12 20:49:00,62.8,62.2,25.22,SSW,198,2.7,2.7,98,0.00,,---,0.31,VWS V14.01,2013-09-13 02:49:00,
2013-09-12 20:50:00,62.8,62.2,25.22,SSW,198,2.7,2.7,98,0.00,,---,0.31,VWS V14.01,2013-09-13 02:50:00,
2013-09-12 20:53:00,62.8,62.2,25.22,South,190,2.7,3.1,98,0.00,,---,0.31,VWS V14.01,2013-09-13 02:53:00,
2013-09-12 20:54:00,62.8,62.2,25.22,South,190,2.7,2.7,98,0.00,,---,0.31,VWS V14.01,2013-09-13 02:54:00,
2013-09-12 20:55:00,62.8,62.2,25.22,South,190,2.7,2.7,98,0.00,,---,0.31,VWS V14.01,2013-09-13 02:55:00,
2013-09-12 20:56:00,62.8,62.2,25.22,South,190,2.7,2.7,98,0.00,,---,0.31,VWS V14.01,2013-09-13 02:56:00,
2013-09-12 20:57:00,62.8,62.2,25.22,South,190,2.7,2.7,98,0.00,,---,0.31,VWS V14.01,2013-09-13 02:57:00,
2013-09-12 21:00:00,62.8,62.2,25.22,South,185,0.0,0.0,98,0.00,,---,0.31,VWS V14.01,2013-09-13 03:00:00,
2013-09-12 21:01:00,62.8,62.2,25.22,South,185,0.0,0.0,98,0.00,,---,0.31,VWS V14.01,2013-09-13 03:01:00,
2013-09-12 21:02:00,62.8,62.2,25.22,South,185,0.0,0.0,98,0.00,,---,0.31,VWS V14.01,2013-09-13 03:02:00,
2013-09-12 21:03:00,62.8,62.2,25.22,South,185,0.0,0.0,98,0.00,,---,0.31,VWS V14.01,2013-09-13 03:03:00,
2013-09-12 21:05:00,62.8,62.2,25.25,South,185,0.0,0.0,98,0.00,,---,0.31,VWS V14.01,2013-09-13 03:05:00,
2013-09-12 21:06:00,62.8,62.2,25.25,South,185,0.0,0.0,98,0.00,,---,0.31,VWS V14.01,2013-09-13 03:06:00,
2013-09-12 21:08:00,62.8,62.2,25.25,South,185,0.0,0.0,98,0.00,,---,0.31,VWS V14.01,2013-09-13 03:08:00,
2013-09-12 21:09:00,62.8,62.2,25.25,South,185,0.0,0.0,98,0.00,,---,0.31,VWS V14.01,2013-09-13 03:09:00,
2013-09-12 21:11:00,62.6,62.0,25.25,South,185,0.0,0.0,98,0.00,,---,0.31,VWS V14.01,2013-09-13 03:11:00,
2013-09-12 21:13:00,62.6,62.0,25.25,South,179,0.0,0.0,98,0.00,,---,0.31,VWS V14.01,2013-09-13 03:13:00,
2013-09-12 21:14:00,62.6,62.0,25.25,South,179,0.0,0.0,98,0.00,,---,0.31,VWS V14.01,2013-09-13 03:14:00,
2013-09-12 21:17:00,62.6,62.0,25.25,South,179,0.0,0.0,98,0.00,,---,0.31,VWS V14.01,2013-09-13 03:17:00,
2013-09-12 21:18:00,62.6,62.0,25.25,South,179,0.0,0.0,98,0.00,,---,0.31,VWS V14.01,2013-09-13 03:18:00,
2013-09-12 21:19:00,62.6,62.0,25.25,South,179,0.0,0.0,98,0.00,,---,0.31,VWS V14.01,2013-09-13 03:19:00,
2013-09-12 21:20:00,62.6,62.0,25.25,South,179,0.0,0.0,98,0.00,,---,0.31,VWS V14.01,2013-09-13 03:20:00,
2013-09-12 21:21:00,62.6,62.0,25.25,South,179,0.0,0.0,98,0.00,,---,0.31,VWS V14.01,2013-09-13 03:21:00,
2013-09-12 21:26:00,62.8,62.2,25.25,South,179,0.0,0.0,98,0.00,,---,0.31,VWS V14.01,2013-09-13 03:26:00,
2013-09-12 21:27:00,62.8,62.2,25.25,South,179,0.0,0.0,98,0.00,,---,0.31,VWS V14.01,2013-09-13 03:27:00,
2013-09-12 21:30:00,62.8,62.2,25.25,South,179,0.0,0.0,98,0.00,,---,0.31,VWS V14.01,2013-09-13 03:30:00,
2013-09-12 21:35:00,62.8,62.2,25.25,South,179,0.0,0.0,98,0.00,,---,0.31,VWS V14.01,2013-09-13 03:35:00,
2013-09-12 21:38:00,62.6,62.0,25.25,South,179,0.0,0.0,98,0.00,,---,0.31,VWS V14.01,2013-09-13 03:38:00,
2013-09-12 21:39:00,62.6,62.0,25.25,South,189,0.0,0.0,98,0.00,,---,0.31,VWS V14.01,2013-09-13 03:39:00,
2013-09-12 21:41:00,62.6,62.0,25.25,South,189,0.0,0.0,98,0.00,,---,0.31,VWS V14.01,2013-09-13 03:41:00,
2013-09-12 21:42:00,62.6,62.0,25.25,South,189,0.0,0.0,98,0.00,,---,0.31,VWS V14.01,2013-09-13 03:42:00,
2013-09-12 21:43:00,62.6,62.0,25.25,South,189,0.0,0.0,98,0.00,,---,0.31,VWS V14.01,2013-09-13 03:43:00,
2013-09-12 21:45:00,62.6,62.0,25.25,South,189,0.0,0.0,98,0.00,,---,0.31,VWS V14.01,2013-09-13 03:45:00,
2013-09-12 21:46:00,62.6,62.0,25.25,South,190,0.0,0.0,98,0.00,,---,0.31,VWS V14.01,2013-09-13 03:46:00,
2013-09-12 21:47:00,62.6,62.0,25.25,South,190,0.0,0.0,98,0.00,,---,0.31,VWS V14.01,2013-09-13 03:47:00,
2013-09-12 21:48:00,62.6,62.0,25.25,South,190,0.0,0.0,98,0.00,,---,0.31,VWS V14.01,2013-09-13 03:48:00,
2013-09-12 21:49:00,62.6,62.0,25.25,South,190,0.0,0.0,98,0.00,,---,0.31,VWS V14.01,2013-09-13 03:49:00,
2013-09-12 21:50:00,62.6,62.0,25.25,South,190,0.0,0.0,98,0.00,,---,0.31,VWS V14.01,2013-09-13 03:50:00,
2013-09-12 21:54:00,62.4,61.8,25.25,South,186,0.0,0.0,98,0.00,,---,0.31,VWS V14.01,2013-09-13 03:54:00,
2013-09-12 21:55:00,62.4,61.8,25.25,South,186,0.0,0.0,98,0.00,,---,0.31,VWS V14.01,2013-09-13 03:55:00,
2013-09-12 21:58:00,62.4,61.8,25.25,South,185,0.0,0.0,98,0.00,,---,0.31,VWS V14.01,2013-09-13 03:58:00,
2013-09-12 21:59:00,62.4,61.8,25.25,ENE,58,4.0,4.0,98,0.00,,---,0.31,VWS V14.01,2013-09-13 03:59:00,
2013-09-12 22:01:00,62.4,61.8,25.25,ENE,58,4.0,4.0,98,0.00,,---,0.31,VWS V14.01,2013-09-13 04:01:00,
2013-09-12 22:02:00,62.4,61.8,25.25,ENE,67,3.1,4.0,98,0.00,,---,0.31,VWS V14.01,2013-09-13 04:02:00,
2013-09-12 22:03:00,62.4,61.8,25.25,ENE,67,3.1,3.1,98,0.00,,---,0.31,VWS V14.01,2013-09-13 04:03:00,
2013-09-12 22:04:00,62.4,61.8,25.25,ENE,67,3.1,3.1,98,0.00,,---,0.31,VWS V14.01,2013-09-13 04:04:00,
2013-09-12 22:06:00,62.6,62.0,25.25,ENE,68,2.2,2.2,98,0.00,,---,0.31,VWS V14.01,2013-09-13 04:06:00,
2013-09-12 22:08:00,62.6,62.0,25.25,East,97,2.7,2.7,98,0.00,,---,0.31,VWS V14.01,2013-09-13 04:08:00,
2013-09-12 22:09:00,62.8,62.2,25.25,East,97,0.0,2.7,98,0.00,,---,0.31,VWS V14.01,2013-09-13 04:09:00,
2013-09-12 22:11:00,62.8,62.2,25.25,East,97,2.2,2.2,98,0.00,,---,0.31,VWS V14.01,2013-09-13 04:11:00,
2013-09-12 22:13:00,63.0,62.4,25.25,East,99,0.0,2.2,98,0.00,,---,0.31,VWS V14.01,2013-09-13 04:13:00,
2013-09-12 22:14:00,63.0,62.4,25.25,East,99,0.0,0.0,98,0.00,,---,0.31,VWS V14.01,2013-09-13 04:14:00,
2013-09-12 22:16:00,63.0,62.4,25.25,East,99,0.0,0.0,98,0.00,,---,0.31,VWS V14.01,2013-09-13 04:16:00,
2013-09-12 22:17:00,63.0,62.4,25.25,East,99,0.0,0.0,98,0.00,,---,0.31,VWS V14.01,2013-09-13 04:17:00,
2013-09-12 22:18:00,63.0,62.4,25.25,East,99,0.0,0.0,98,0.00,,---,0.31,VWS V14.01,2013-09-13 04:18:00,
2013-09-12 22:19:00,62.8,62.2,25.25,ESE,103,4.0,4.0,98,0.00,,---,0.31,VWS V14.01,2013-09-13 04:19:00,
2013-09-12 22:24:00,62.8,62.2,25.22,SE,144,2.7,2.7,98,0.00,,---,0.31,VWS V14.01,2013-09-13 04:24:00,
2013-09-12 22:25:00,63.0,62.4,25.22,SE,144,2.7,2.7,98,0.00,,---,0.31,VWS V14.01,2013-09-13 04:25:00,
2013-09-12 22:26:00,63.0,62.1,25.22,SE,142,3.1,3.1,97,0.00,,---,0.31,VWS V14.01,2013-09-13 04:26:00,
2013-09-12 22:28:00,63.1,62.3,25.22,SE,142,3.1,3.1,97,0.00,,---,0.31,VWS V14.01,2013-09-13 04:28:00,
2013-09-12 22:30:00,63.1,62.3,25.22,SSE,162,0.0,3.1,97,0.00,,---,0.31,VWS V14.01,2013-09-13 04:30:00,
2013-09-12 22:32:00,63.1,62.3,25.22,SSE,162,0.0,0.0,97,0.00,,---,0.31,VWS V14.01,2013-09-13 04:32:00,
2013-09-12 22:33:00,63.1,62.3,25.22,SSE,149,4.0,4.0,97,0.00,,---,0.31,VWS V14.01,2013-09-13 04:33:00,
2013-09-12 22:34:00,63.5,62.6,25.22,SSE,149,4.0,4.0,97,0.00,,---,0.31,VWS V14.01,2013-09-13 04:34:00,
2013-09-12 22:38:00,63.5,62.6,25.25,South,187,0.0,0.0,97,0.00,,---,0.31,VWS V14.01,2013-09-13 04:38:00,
2013-09-12 22:41:00,63.5,62.6,25.25,South,187,0.0,0.0,97,0.00,,---,0.31,VWS V14.01,2013-09-13 04:41:00,
2013-09-12 22:42:00,63.5,62.0,25.25,South,187,0.0,0.0,95,0.00,,---,0.31,VWS V14.01,2013-09-13 04:42:00,
2013-09-12 22:43:00,63.5,62.0,25.25,SSW,194,3.1,3.1,95,0.00,,---,0.31,VWS V14.01,2013-09-13 04:43:00,
2013-09-12 22:45:00,63.1,61.1,25.25,SSW,202,3.1,3.1,93,0.00,,---,0.31,VWS V14.01,2013-09-13 04:45:00,
2013-09-12 22:48:00,63.1,60.8,25.25,SW,214,0.0,3.1,92,0.00,,---,0.31,VWS V14.01,2013-09-13 04:48:00,
2013-09-12 22:50:00,63.1,60.8,25.25,SW,214,0.0,0.0,92,0.00,,---,0.31,VWS V14.01,2013-09-13 04:50:00,
2013-09-12 22:52:00,63.1,60.5,25.25,SW,214,0.0,0.0,91,0.00,,---,0.31,VWS V14.01,2013-09-13 04:52:00,
2013-09-12 22:54:00,63.0,60.3,25.25,SW,214,0.0,0.0,91,0.00,,---,0.31,VWS V14.01,2013-09-13 04:54:00,
2013-09-12 22:56:00,63.0,60.3,25.25,SW,214,0.0,0.0,91,0.00,,---,0.31,VWS V14.01,2013-09-13 04:56:00,
2013-09-12 22:57:00,63.0,60.3,25.25,SW,214,0.0,0.0,91,0.00,,---,0.31,VWS V14.01,2013-09-13 04:57:00,
2013-09-12 22:59:00,63.0,60.3,25.25,SW,214,0.0,0.0,91,0.00,,---,0.31,VWS V14.01,2013-09-13 04:59:00,
2013-09-12 23:00:00,62.8,60.1,25.25,SW,214,0.0,0.0,91,0.00,,---,0.31,VWS V14.01,2013-09-13 05:00:00,
2013-09-12 23:01:00,62.8,60.1,25.25,SW,214,0.0,0.0,91,0.00,,---,0.31,VWS V14.01,2013-09-13 05:01:00,
2013-09-12 23:04:00,62.8,60.1,25.25,SW,214,0.0,0.0,91,0.00,,---,0.31,VWS V14.01,2013-09-13 05:04:00,
2013-09-12 23:05:00,62.8,60.1,25.25,SW,214,0.0,0.0,91,0.00,,---,0.31,VWS V14.01,2013-09-13 05:05:00,
2013-09-12 23:06:00,62.8,60.1,25.25,SW,214,0.0,0.0,91,0.00,,---,0.31,VWS V14.01,2013-09-13 05:06:00,
2013-09-12 23:07:00,62.8,60.1,25.25,SW,214,0.0,0.0,91,0.00,,---,0.31,VWS V14.01,2013-09-13 05:07:00,
2013-09-12 23:10:00,62.6,59.6,25.25,SW,214,0.0,0.0,90,0.00,,---,0.31,VWS V14.01,2013-09-13 05:10:00,
2013-09-12 23:11:00,62.4,59.8,25.25,SW,214,0.0,0.0,91,0.00,,---,0.31,VWS V14.01,2013-09-13 05:11:00,
2013-09-12 23:13:00,62.4,59.8,25.25,ESE,120,0.0,0.0,91,0.00,,---,0.31,VWS V14.01,2013-09-13 05:13:00,
2013-09-12 23:14:00,62.4,59.8,25.25,ESE,120,0.0,0.0,91,0.00,,---,0.31,VWS V14.01,2013-09-13 05:14:00,
2013-09-12 23:15:00,62.4,59.8,25.25,ESE,120,0.0,0.0,91,0.00,,---,0.31,VWS V14.01,2013-09-13 05:15:00,
2013-09-12 23:16:00,62.4,59.8,25.25,SSW,207,2.2,2.2,91,0.00,,---,0.31,VWS V14.01,2013-09-13 05:16:00,
2013-09-12 23:18:00,62.4,59.8,25.22,SSW,207,2.2,2.2,91,0.00,,---,0.31,VWS V14.01,2013-09-13 05:18:00,
2013-09-12 23:19:00,62.6,59.9,25.22,SSE,150,2.2,2.2,91,0.00,,---,0.31,VWS V14.01,2013-09-13 05:19:00,
2013-09-12 23:21:00,62.8,60.1,25.22,SSE,150,2.2,2.2,91,0.00,,---,0.31,VWS V14.01,2013-09-13 05:21:00,
2013-09-12 23:23:00,62.8,60.1,25.22,SE,143,0.0,2.2,91,0.00,,---,0.31,VWS V14.01,2013-09-13 05:23:00,
2013-09-12 23:24:00,62.8,60.1,25.22,SE,143,0.0,0.0,91,0.00,,---,0.31,VWS V14.01,2013-09-13 05:24:00,
2013-09-12 23:26:00,62.8,60.1,25.22,ESE,116,2.7,2.7,91,0.00,,---,0.31,VWS V14.01,2013-09-13 05:26:00,
2013-09-12 23:27:00,62.8,60.1,25.22,ESE,116,0.0,2.7,91,0.00,,---,0.31,VWS V14.01,2013-09-13 05:27:00,
2013-09-12 23:28:00,62.8,60.1,25.22,SSE,161,2.7,2.7,91,0.00,,---,0.31,VWS V14.01,2013-09-13 05:28:00,
2013-09-12 23:29:00,62.8,60.1,25.22,SSE,161,2.7,2.7,91,0.00,,---,0.31,VWS V14.01,2013-09-13 05:29:00,
2013-09-12 23:34:00,62.8,60.1,25.22,SSE,163,2.7,2.7,91,0.00,,---,0.31,VWS V14.01,2013-09-13 05:34:00,
2013-09-12 23:35:00,62.8,59.8,25.22,SSE,163,2.7,2.7,90,0.00,,---,0.31,VWS V14.01,2013-09-13 05:35:00,
2013-09-12 23:37:00,62.6,59.6,25.22,SSE,166,2.2,2.2,90,0.00,,---,0.31,VWS V14.01,2013-09-13 05:37:00,
2013-09-12 23:38:00,62.6,59.6,25.22,SSW,210,0.0,2.2,90,0.00,,---,0.31,VWS V14.01,2013-09-13 05:38:00,
2013-09-12 23:40:00,62.6,59.6,25.22,SSW,210,0.0,0.0,90,0.00,,---,0.31,VWS V14.01,2013-09-13 05:40:00,
2013-09-12 23:43:00,62.6,59.6,25.22,SSW,210,0.0,0.0,90,0.00,,---,0.31,VWS V14.01,2013-09-13 05:43:00,
2013-09-12 23:45:00,62.6,59.6,25.22,SSW,210,0.0,0.0,90,0.00,,---,0.31,VWS V14.01,2013-09-13 05:45:00,
2013-09-12 23:47:00,62.6,59.3,25.22,WSW,256,0.0,0.0,89,0.00,,---,0.31,VWS V14.01,2013-09-13 05:47:00,
2013-09-12 23:48:00,62.6,59.3,25.22,WSW,241,0.0,0.0,89,0.00,,---,0.31,VWS V14.01,2013-09-13 05:48:00,
2013-09-12 23:52:00,62.6,59.3,25.22,WSW,241,0.0,0.0,89,0.00,,---,0.31,VWS V14.01,2013-09-13 05:52:00,
2013-09-12 23:53:00,62.6,59.3,25.22,WSW,241,0.0,0.0,89,0.00,,---,0.31,VWS V14.01,2013-09-13 05:53:00,
2013-09-12 23:57:00,62.6,59.3,25.22,SSW,193,0.0,0.0,89,0.00,,---,0.31,VWS V14.01,2013-09-13 05:57:00,
2013-09-12 23:58:00,62.6,59.3,25.22,SSW,193,0.0,0.0,89,0.00,,---,0.31,VWS V14.01,2013-09-13 05:58:00,